Wetterdaten: Mittwoch, 13.08.2014
Datum Zeit Temp. Aussen +5cm Feuchte Auss Luftdruck Regen Sonnenschein Regendauer UV Solar Windben
13.08.2014 00:00 13,9 C 12,2 C 92 % 1008,7 hPa 0,0 l/m 0 min 0 min 0,0 UV-I 0 W/m 3,5 km/h (1 Bft)
13.08.2014 00:02 13,9 C 12,2 C 92 % 1008,6 hPa 0,0 l/m 0 min 0 min 0,0 UV-I 0 W/m 17,7 km/h (3 Bft)
13.08.2014 00:06 14,0 C 12,2 C 92 % 1008,6 hPa 0,0 l/m 0 min 0 min 0,0 UV-I 0 W/m 14,2 km/h (3 Bft)
13.08.2014 00:08 14,0 C 12,2 C 92 % 1008,5 hPa 0,0 l/m 0 min 0 min 0,0 UV-I 0 W/m 17,7 km/h (3 Bft)
13.08.2014 00:10 14,1 C 12,2 C 91 % 1008,6 hPa 0,0 l/m 0 min 0 min 0,0 UV-I 0 W/m 10,7 km/h (2 Bft)
13.08.2014 00:12 14,2 C 12,8 C 91 % 1008,5 hPa 0,0 l/m 0 min 0 min 0,0 UV-I 0 W/m 28,2 km/h (4 Bft)
13.08.2014 00:14 14,2 C 12,8 C 91 % 1008,5 hPa 0,0 l/m 0 min 0 min 0,0 UV-I 0 W/m 17,7 km/h (3 Bft)
13.08.2014 00:16 14,2 C 12,8 C 91 % 1008,5 hPa 0,0 l/m 0 min 0 min 0,0 UV-I 0 W/m 17,7 km/h (3 Bft)
13.08.2014 00:18 14,2 C 12,8 C 90 % 1008,5 hPa 0,0 l/m 0 min 0 min 0,0 UV-I 0 W/m 17,7 km/h (3 Bft)
13.08.2014 00:20 14,2 C 12,8 C 90 % 1008,6 hPa 0,0 l/m 0 min 0 min 0,0 UV-I 0 W/m 24,7 km/h (4 Bft)
13.08.2014 00:22 14,2 C 12,8 C 90 % 1008,5 hPa 0,0 l/m 0 min 0 min 0,0 UV-I 0 W/m 21,3 km/h (4 Bft)
13.08.2014 00:24 14,3 C 12,8 C 90 % 1008,5 hPa 0,0 l/m 0 min 0 min 0,0 UV-I 0 W/m 10,7 km/h (2 Bft)
13.08.2014 00:26 14,3 C 12,8 C 90 % 1008,5 hPa 0,0 l/m 0 min 0 min 0,0 UV-I 0 W/m 14,2 km/h (3 Bft)
13.08.2014 00:28 14,3 C 12,8 C 90 % 1008,5 hPa 0,0 l/m 0 min 0 min 0,0 UV-I 0 W/m 14,2 km/h (3 Bft)
13.08.2014 00:30 14,3 C 12,8 C 89 % 1008,5 hPa 0,0 l/m 0 min 0 min 0,0 UV-I 0 W/m 14,2 km/h (3 Bft)
13.08.2014 00:32 14,3 C 12,8 C 89 % 1008,4 hPa 0,0 l/m 0 min 0 min 0,0 UV-I 0 W/m 21,3 km/h (4 Bft)
13.08.2014 00:34 14,3 C 12,8 C 89 % 1008,4 hPa 0,0 l/m 0 min 0 min 0,0 UV-I 0 W/m 17,7 km/h (3 Bft)
13.08.2014 00:36 14,3 C 12,8 C 89 % 1008,4 hPa 0,0 l/m 0 min 0 min 0,0 UV-I 0 W/m 10,7 km/h (2 Bft)
13.08.2014 00:38 14,3 C 12,8 C 89 % 1008,4 hPa 0,0 l/m 0 min 0 min 0,0 UV-I 0 W/m 17,7 km/h (3 Bft)
13.08.2014 00:40 14,3 C 12,8 C 89 % 1008,4 hPa 0,0 l/m 0 min 0 min 0,0 UV-I 0 W/m 17,7 km/h (3 Bft)
13.08.2014 00:42 14,3 C 12,8 C 89 % 1008,3 hPa 0,0 l/m 0 min 0 min 0,0 UV-I 0 W/m 24,7 km/h (4 Bft)
13.08.2014 00:44 14,3 C 12,8 C 89 % 1008,3 hPa 0,0 l/m 0 min 0 min 0,0 UV-I 0 W/m 24,7 km/h (4 Bft)
13.08.2014 00:46 14,3 C 12,8 C 89 % 1008,3 hPa 0,0 l/m 0 min 0 min 0,0 UV-I 0 W/m 21,3 km/h (4 Bft)
13.08.2014 00:48 14,3 C 12,8 C 89 % 1008,2 hPa 0,0 l/m 0 min 0 min 0,0 UV-I 0 W/m 24,7 km/h (4 Bft)
13.08.2014 00:50 14,3 C 12,8 C 89 % 1008,2 hPa 0,0 l/m 0 min 0 min 0,0 UV-I 0 W/m 24,7 km/h (4 Bft)
13.08.2014 00:52 14,3 C 12,8 C 89 % 1008,2 hPa 0,0 l/m 0 min 0 min 0,0 UV-I 0 W/m 14,2 km/h (3 Bft)
13.08.2014 00:54 14,3 C 12,8 C 89 % 1008,1 hPa 0,0 l/m 0 min 0 min 0,0 UV-I 0 W/m 17,7 km/h (3 Bft)
13.08.2014 00:56 14,2 C 12,8 C 90 % 1008,1 hPa 0,0 l/m 0 min 0 min 0,0 UV-I 0 W/m 14,2 km/h (3 Bft)
13.08.2014 00:58 14,2 C 12,8 C 90 % 1008,0 hPa 0,0 l/m 0 min 0 min 0,0 UV-I 0 W/m 14,2 km/h (3 Bft)
13.08.2014 01:00 14,2 C 12,8 C 90 % 1008,0 hPa 0,0 l/m 0 min 0 min 0,0 UV-I 0 W/m 28,2 km/h (4 Bft)
13.08.2014 01:02 14,2 C 12,2 C 90 % 1008,0 hPa 0,0 l/m 0 min 0 min 0,0 UV-I 0 W/m 14,2 km/h (3 Bft)
13.08.2014 01:04 14,2 C 12,2 C 90 % 1008,0 hPa 0,0 l/m 0 min 0 min 0,0 UV-I 0 W/m 21,3 km/h (4 Bft)
13.08.2014 01:06 14,2 C 12,2 C 90 % 1008,0 hPa 0,0 l/m 0 min 0 min 0,0 UV-I 0 W/m 14,2 km/h (3 Bft)
13.08.2014 01:08 14,2 C 12,2 C 90 % 1007,9 hPa 0,0 l/m 0 min 0 min 0,0 UV-I 0 W/m 14,2 km/h (3 Bft)
13.08.2014 01:10 14,1 C 12,2 C 90 % 1008,0 hPa 0,0 l/m 0 min 0 min 0,0 UV-I 0 W/m 3,5 km/h (1 Bft)
13.08.2014 01:12 14,1 C 12,2 C 90 % 1008,0 hPa 0,0 l/m 0 min 0 min 0,0 UV-I 0 W/m 0,0 km/h (0 Bft)
13.08.2014 01:14 14,0 C 12,2 C 91 % 1008,0 hPa 0,0 l/m 0 min 0 min 0,0 UV-I 0 W/m 3,5 km/h (1 Bft)
13.08.2014 01:16 14,0 C 12,2 C 91 % 1008,0 hPa 0,0 l/m 0 min 0 min 0,0 UV-I 0 W/m 3,5 km/h (1 Bft)
13.08.2014 01:18 14,0 C 12,2 C 91 % 1007,9 hPa 0,0 l/m 0 min 0 min 0,0 UV-I 0 W/m 0,0 km/h (0 Bft)
13.08.2014 01:20 13,9 C 12,2 C 91 % 1007,9 hPa 0,0 l/m 0 min 0 min 0,0 UV-I 0 W/m 0,0 km/h (0 Bft)
13.08.2014 01:22 13,9 C 12,2 C 91 % 1007,9 hPa 0,0 l/m 0 min 0 min 0,0 UV-I 0 W/m 0,0 km/h (0 Bft)
13.08.2014 01:24 13,9 C 12,2 C 91 % 1007,9 hPa 0,0 l/m 0 min 0 min 0,0 UV-I 0 W/m 14,2 km/h (3 Bft)
13.08.2014 01:26 13,9 C 12,2 C 91 % 1007,9 hPa 0,0 l/m 0 min 0 min 0,0 UV-I 0 W/m 10,7 km/h (2 Bft)
13.08.2014 01:28 13,8 C 12,2 C 92 % 1007,9 hPa 0,0 l/m 0 min 0 min 0,0 UV-I 0 W/m 14,2 km/h (3 Bft)
13.08.2014 01:30 13,8 C 12,2 C 92 % 1007,9 hPa 0,0 l/m 0 min 0 min 0,0 UV-I 0 W/m 17,7 km/h (3 Bft)
13.08.2014 01:32 13,8 C 12,2 C 92 % 1007,9 hPa 0,0 l/m 0 min 0 min 0,0 UV-I 0 W/m 17,7 km/h (3 Bft)
13.08.2014 01:34 13,7 C 12,2 C 92 % 1007,8 hPa 0,0 l/m 0 min 0 min 0,0 UV-I 0 W/m 3,5 km/h (1 Bft)
13.08.2014 01:36 13,7 C 12,2 C 92 % 1007,8 hPa 0,0 l/m 0 min 0 min 0,0 UV-I 0 W/m 14,2 km/h (3 Bft)
13.08.2014 01:38 13,6 C 12,2 C 92 % 1007,8 hPa 0,0 l/m 0 min 0 min 0,0 UV-I 0 W/m 14,2 km/h (3 Bft)
13.08.2014 01:40 13,6 C 11,7 C 92 % 1007,8 hPa 0,0 l/m 0 min 0 min 0,0 UV-I 0 W/m 14,2 km/h (3 Bft)
13.08.2014 01:42 13,6 C 11,7 C 92 % 1007,8 hPa 0,0 l/m 0 min 0 min 0,0 UV-I 0 W/m 0,0 km/h (0 Bft)
13.08.2014 01:44 13,6 C 11,7 C 92 % 1007,8 hPa 0,0 l/m 0 min 0 min 0,0 UV-I 0 W/m 3,5 km/h (1 Bft)
13.08.2014 01:46 13,5 C 11,7 C 92 % 1007,8 hPa 0,0 l/m 0 min 0 min 0,0 UV-I 0 W/m 10,7 km/h (2 Bft)
13.08.2014 01:48 13,5 C 11,7 C 93 % 1007,8 hPa 0,0 l/m 0 min 0 min 0,0 UV-I 0 W/m 0,0 km/h (0 Bft)
13.08.2014 01:50 13,5 C 11,7 C 93 % 1007,7 hPa 0,0 l/m 0 min 0 min 0,0 UV-I 0 W/m 7,1 km/h (2 Bft)
13.08.2014 01:52 13,5 C 11,7 C 93 % 1007,7 hPa 0,0 l/m 0 min 0 min 0,0 UV-I 0 W/m 0,0 km/h (0 Bft)
13.08.2014 01:54 13,5 C 11,7 C 93 % 1007,7 hPa 0,0 l/m 0 min 0 min 0,0 UV-I 0 W/m 0,0 km/h (0 Bft)
13.08.2014 01:56 13,4 C 11,7 C 93 % 1007,6 hPa 0,0 l/m 0 min 0 min 0,0 UV-I 0 W/m 0,0 km/h (0 Bft)
13.08.2014 01:58 13,4 C 11,7 C 93 % 1007,6 hPa 0,0 l/m 0 min 0 min 0,0 UV-I 0 W/m 0,0 km/h (0 Bft)
13.08.2014 02:00 13,4 C 11,7 C 93 % 1007,6 hPa 0,0 l/m 0 min 0 min 0,0 UV-I 0 W/m 7,1 km/h (2 Bft)
13.08.2014 02:02 13,3 C 11,7 C 93 % 1007,5 hPa 0,0 l/m 0 min 0 min 0,0 UV-I 0 W/m 14,2 km/h (3 Bft)
13.08.2014 02:04 13,4 C 11,7 C 93 % 1007,5 hPa 0,0 l/m 0 min 0 min 0,0 UV-I 0 W/m 17,7 km/h (3 Bft)
13.08.2014 02:06 13,4 C 11,7 C 93 % 1007,4 hPa 0,0 l/m 0 min 0 min 0,0 UV-I 0 W/m 10,7 km/h (2 Bft)
13.08.2014 02:08 13,4 C 11,7 C 93 % 1007,4 hPa 0,0 l/m 0 min 0 min 0,0 UV-I 0 W/m 17,7 km/h (3 Bft)
13.08.2014 02:10 13,4 C 11,7 C 93 % 1007,5 hPa 0,0 l/m 0 min 0 min 0,0 UV-I 0 W/m 10,7 km/h (2 Bft)
13.08.2014 02:12 13,4 C 11,7 C 93 % 1007,5 hPa 0,0 l/m 0 min 0 min 0,0 UV-I 0 W/m 0,0 km/h (0 Bft)
13.08.2014 02:14 13,4 C 11,7 C 93 % 1007,5 hPa 0,0 l/m 0 min 0 min 0,0 UV-I 0 W/m 21,3 km/h (4 Bft)
13.08.2014 02:16 13,4 C 11,7 C 93 % 1007,4 hPa 0,0 l/m 0 min 0 min 0,0 UV-I 0 W/m 7,1 km/h (2 Bft)
13.08.2014 02:18 13,4 C 11,7 C 93 % 1007,4 hPa 0,0 l/m 0 min 0 min 0,0 UV-I 0 W/m 14,2 km/h (3 Bft)
13.08.2014 02:20 13,4 C 11,7 C 93 % 1007,4 hPa 0,0 l/m 0 min 0 min 0,0 UV-I 0 W/m 14,2 km/h (3 Bft)
13.08.2014 02:22 13,4 C 11,7 C 94 % 1007,4 hPa 0,0 l/m 0 min 0 min 0,0 UV-I 0 W/m 7,1 km/h (2 Bft)
13.08.2014 02:24 13,4 C 11,7 C 94 % 1007,3 hPa 0,0 l/m 0 min 0 min 0,0 UV-I 0 W/m 14,2 km/h (3 Bft)
13.08.2014 02:26 13,4 C 11,7 C 94 % 1007,3 hPa 0,0 l/m 0 min 0 min 0,0 UV-I 0 W/m 17,7 km/h (3 Bft)
13.08.2014 02:28 13,4 C 12,2 C 94 % 1007,4 hPa 0,0 l/m 0 min 0 min 0,0 UV-I 0 W/m 14,2 km/h (3 Bft)
13.08.2014 02:30 13,4 C 12,2 C 94 % 1007,3 hPa 0,0 l/m 0 min 0 min 0,0 UV-I 0 W/m 7,1 km/h (2 Bft)
13.08.2014 02:32 13,4 C 12,2 C 94 % 1007,3 hPa 0,0 l/m 0 min 0 min 0,0 UV-I 0 W/m 7,1 km/h (2 Bft)
13.08.2014 02:34 13,4 C 12,2 C 94 % 1007,2 hPa 0,0 l/m 0 min 0 min 0,0 UV-I 0 W/m 10,7 km/h (2 Bft)
13.08.2014 02:36 13,4 C 12,2 C 94 % 1007,2 hPa 0,0 l/m 0 min 0 min 0,0 UV-I 0 W/m 10,7 km/h (2 Bft)
13.08.2014 02:38 13,4 C 12,2 C 94 % 1007,2 hPa 0,0 l/m 0 min 0 min 0,0 UV-I 0 W/m 14,2 km/h (3 Bft)
13.08.2014 02:40 13,5 C 12,2 C 94 % 1007,1 hPa 0,0 l/m 0 min 0 min 0,0 UV-I 0 W/m 0,0 km/h (0 Bft)
13.08.2014 02:42 13,5 C 12,2 C 94 % 1007,2 hPa 0,0 l/m 0 min 0 min 0,0 UV-I 0 W/m 7,1 km/h (2 Bft)
13.08.2014 02:44 13,5 C 12,2 C 94 % 1007,1 hPa 0,0 l/m 0 min 0 min 0,0 UV-I 0 W/m 14,2 km/h (3 Bft)
13.08.2014 02:46 13,5 C 12,2 C 94 % 1007,1 hPa 0,0 l/m 0 min 0 min 0,0 UV-I 0 W/m 17,7 km/h (3 Bft)
13.08.2014 02:48 13,5 C 12,2 C 94 % 1007,0 hPa 0,0 l/m 0 min 0 min 0,0 UV-I 0 W/m 7,1 km/h (2 Bft)
13.08.2014 02:50 13,5 C 12,2 C 94 % 1007,0 hPa 0,0 l/m 0 min 0 min 0,0 UV-I 0 W/m 10,7 km/h (2 Bft)
13.08.2014 02:52 13,5 C 12,2 C 94 % 1007,0 hPa 0,0 l/m 0 min 0 min 0,0 UV-I 0 W/m 14,2 km/h (3 Bft)
13.08.2014 02:54 13,6 C 12,2 C 94 % 1007,0 hPa 0,0 l/m 0 min 0 min 0,0 UV-I 0 W/m 17,7 km/h (3 Bft)
13.08.2014 02:56 13,6 C 12,2 C 94 % 1007,0 hPa 0,0 l/m 0 min 0 min 0,0 UV-I 0 W/m 21,3 km/h (4 Bft)
13.08.2014 02:58 13,6 C 12,2 C 94 % 1007,0 hPa 0,0 l/m 0 min 0 min 0,0 UV-I 0 W/m 17,7 km/h (3 Bft)
13.08.2014 03:00 13,6 C 12,2 C 95 % 1007,0 hPa 0,0 l/m 0 min 0 min 0,0 UV-I 0 W/m 21,3 km/h (4 Bft)
13.08.2014 03:02 13,6 C 12,2 C 95 % 1006,9 hPa 0,0 l/m 0 min 0 min 0,0 UV-I 0 W/m 24,7 km/h (4 Bft)
13.08.2014 03:04 13,6 C 12,2 C 95 % 1006,9 hPa 0,0 l/m 0 min 0 min 0,0 UV-I 0 W/m 17,7 km/h (3 Bft)
13.08.2014 03:06 13,6 C 12,2 C 95 % 1006,9 hPa 0,0 l/m 0 min 0 min 0,0 UV-I 0 W/m 17,7 km/h (3 Bft)
13.08.2014 03:08 13,6 C 12,2 C 95 % 1006,8 hPa 0,0 l/m 0 min 0 min 0,0 UV-I 0 W/m 24,7 km/h (4 Bft)
13.08.2014 03:10 13,6 C 12,2 C 95 % 1006,8 hPa 0,0 l/m 0 min 0 min 0,0 UV-I 0 W/m 21,3 km/h (4 Bft)
13.08.2014 03:12 13,6 C 12,2 C 95 % 1006,8 hPa 0,0 l/m 0 min 0 min 0,0 UV-I 0 W/m 21,3 km/h (4 Bft)
13.08.2014 03:14 13,6 C 12,2 C 95 % 1006,7 hPa 0,0 l/m 0 min 0 min 0,0 UV-I 0 W/m 17,7 km/h (3 Bft)
13.08.2014 03:16 13,6 C 12,2 C 95 % 1006,7 hPa 0,0 l/m 0 min 0 min 0,0 UV-I 0 W/m 17,7 km/h (3 Bft)
13.08.2014 03:18 13,6 C 12,2 C 95 % 1006,8 hPa 0,0 l/m 0 min 0 min 0,0 UV-I 0 W/m 21,3 km/h (4 Bft)
13.08.2014 03:20 13,6 C 12,2 C 95 % 1006,7 hPa 0,0 l/m 0 min 0 min 0,0 UV-I 0 W/m 17,7 km/h (3 Bft)
13.08.2014 03:22 13,6 C 12,2 C 95 % 1006,8 hPa 0,0 l/m 0 min 0 min 0,0 UV-I 0 W/m 17,7 km/h (3 Bft)
13.08.2014 03:24 13,6 C 12,2 C 95 % 1006,8 hPa 0,0 l/m 0 min 0 min 0,0 UV-I 0 W/m 17,7 km/h (3 Bft)
13.08.2014 03:26 13,6 C 12,2 C 95 % 1006,8 hPa 0,0 l/m 0 min 0 min 0,0 UV-I 0 W/m 21,3 km/h (4 Bft)
13.08.2014 03:28 13,6 C 12,2 C 95 % 1006,8 hPa 0,0 l/m 0 min 0 min 0,0 UV-I 0 W/m 17,7 km/h (3 Bft)
13.08.2014 03:30 13,6 C 12,2 C 95 % 1006,7 hPa 0,0 l/m 0 min 0 min 0,0 UV-I 0 W/m 14,2 km/h (3 Bft)
13.08.2014 03:32 13,6 C 12,2 C 95 % 1006,7 hPa 0,0 l/m 0 min 0 min 0,0 UV-I 0 W/m 0,0 km/h (0 Bft)
13.08.2014 03:34 13,6 C 12,2 C 95 % 1006,7 hPa 0,0 l/m 0 min 0 min 0,0 UV-I 0 W/m 0,0 km/h (0 Bft)
13.08.2014 03:36 13,6 C 12,2 C 95 % 1006,7 hPa 0,0 l/m 0 min 0 min 0,0 UV-I 0 W/m 14,2 km/h (3 Bft)
13.08.2014 03:38 13,6 C 12,2 C 95 % 1006,7 hPa 0,0 l/m 0 min 0 min 0,0 UV-I 0 W/m 10,7 km/h (2 Bft)
13.08.2014 03:40 13,6 C 12,2 C 95 % 1006,7 hPa 0,0 l/m 0 min 0 min 0,0 UV-I 0 W/m 7,1 km/h (2 Bft)
13.08.2014 03:42 13,6 C 12,2 C 95 % 1006,8 hPa 0,0 l/m 0 min 0 min 0,0 UV-I 0 W/m 14,2 km/h (3 Bft)
13.08.2014 03:44 13,6 C 12,2 C 95 % 1006,8 hPa 0,0 l/m 0 min 0 min 0,0 UV-I 0 W/m 3,5 km/h (1 Bft)
13.08.2014 03:46 13,5 C 12,2 C 95 % 1006,7 hPa 0,0 l/m 0 min 0 min 0,0 UV-I 0 W/m 0,0 km/h (0 Bft)
13.08.2014 03:48 13,5 C 12,2 C 95 % 1006,7 hPa 0,0 l/m 0 min 0 min 0,0 UV-I 0 W/m 0,0 km/h (0 Bft)
13.08.2014 03:50 13,4 C 12,2 C 95 % 1006,7 hPa 0,0 l/m 0 min 0 min 0,0 UV-I 0 W/m 0,0 km/h (0 Bft)
13.08.2014 03:52 13,4 C 12,2 C 95 % 1006,6 hPa 0,0 l/m 0 min 0 min 0,0 UV-I 0 W/m 0,0 km/h (0 Bft)
13.08.2014 03:54 13,4 C 12,2 C 95 % 1006,6 hPa 0,0 l/m 0 min 0 min 0,0 UV-I 0 W/m 0,0 km/h (0 Bft)
13.08.2014 03:56 13,3 C 12,2 C 95 % 1006,6 hPa 0,0 l/m 0 min 0 min 0,0 UV-I 0 W/m 0,0 km/h (0 Bft)
13.08.2014 03:58 13,3 C 11,7 C 95 % 1006,6 hPa 0,0 l/m 0 min 0 min 0,0 UV-I 0 W/m 0,0 km/h (0 Bft)
13.08.2014 04:00 13,3 C 11,7 C 95 % 1006,5 hPa 0,0 l/m 0 min 0 min 0,0 UV-I 0 W/m 0,0 km/h (0 Bft)
13.08.2014 04:02 13,2 C 11,7 C 95 % 1006,4 hPa 0,0 l/m 0 min 0 min 0,0 UV-I 0 W/m 0,0 km/h (0 Bft)
13.08.2014 04:04 13,2 C 11,7 C 95 % 1006,4 hPa 0,0 l/m 0 min 0 min 0,0 UV-I 0 W/m 0,0 km/h (0 Bft)
13.08.2014 04:06 13,1 C 11,7 C 95 % 1006,4 hPa 0,0 l/m 0 min 0 min 0,0 UV-I 0 W/m 0,0 km/h (0 Bft)
13.08.2014 04:08 13,1 C 11,7 C 96 % 1006,3 hPa 0,0 l/m 0 min 0 min 0,0 UV-I 0 W/m 0,0 km/h (0 Bft)
13.08.2014 04:10 13,1 C 11,7 C 96 % 1006,3 hPa 0,0 l/m 0 min 0 min 0,0 UV-I 0 W/m 0,0 km/h (0 Bft)
13.08.2014 04:12 13,1 C 11,7 C 95 % 1006,2 hPa 0,0 l/m 0 min 0 min 0,0 UV-I 0 W/m 0,0 km/h (0 Bft)
13.08.2014 04:14 13,0 C 11,7 C 96 % 1006,2 hPa 0,0 l/m 0 min 0 min 0,0 UV-I 0 W/m 0,0 km/h (0 Bft)
13.08.2014 04:16 12,9 C 11,7 C 96 % 1006,3 hPa 0,0 l/m 0 min 0 min 0,0 UV-I 0 W/m 0,0 km/h (0 Bft)
13.08.2014 04:18 12,9 C 11,1 C 96 % 1006,2 hPa 0,0 l/m 0 min 0 min 0,0 UV-I 0 W/m 0,0 km/h (0 Bft)
13.08.2014 04:20 12,9 C 11,1 C 96 % 1006,2 hPa 0,0 l/m 0 min 0 min 0,0 UV-I 0 W/m 0,0 km/h (0 Bft)
13.08.2014 04:22 12,8 C 11,1 C 96 % 1006,3 hPa 0,0 l/m 0 min 0 min 0,0 UV-I 0 W/m 0,0 km/h (0 Bft)
13.08.2014 04:24 12,8 C 11,1 C 96 % 1006,3 hPa 0,0 l/m 0 min 0 min 0,0 UV-I 0 W/m 0,0 km/h (0 Bft)
13.08.2014 04:26 12,8 C 11,1 C 96 % 1006,4 hPa 0,0 l/m 0 min 0 min 0,0 UV-I 0 W/m 0,0 km/h (0 Bft)
13.08.2014 04:28 12,8 C 11,1 C 96 % 1006,4 hPa 0,0 l/m 0 min 0 min 0,0 UV-I 0 W/m 0,0 km/h (0 Bft)
13.08.2014 04:30 12,8 C 11,1 C 96 % 1006,4 hPa 0,0 l/m 0 min 0 min 0,0 UV-I 0 W/m 0,0 km/h (0 Bft)
13.08.2014 04:32 12,7 C 11,1 C 96 % 1006,4 hPa 0,0 l/m 0 min 0 min 0,0 UV-I 0 W/m 0,0 km/h (0 Bft)
13.08.2014 04:34 12,7 C 11,1 C 96 % 1006,4 hPa 0,0 l/m 0 min 0 min 0,0 UV-I 0 W/m 0,0 km/h (0 Bft)
13.08.2014 04:36 12,7 C 11,1 C 96 % 1006,3 hPa 0,0 l/m 0 min 0 min 0,0 UV-I 0 W/m 0,0 km/h (0 Bft)
13.08.2014 04:38 12,6 C 11,1 C 96 % 1006,4 hPa 0,0 l/m 0 min 0 min 0,0 UV-I 0 W/m 0,0 km/h (0 Bft)
13.08.2014 04:40 12,6 C 11,1 C 96 % 1006,5 hPa 0,0 l/m 0 min 0 min 0,0 UV-I 0 W/m 0,0 km/h (0 Bft)
13.08.2014 04:42 12,6 C 11,1 C 96 % 1006,6 hPa 0,0 l/m 0 min 0 min 0,0 UV-I 0 W/m 0,0 km/h (0 Bft)
13.08.2014 04:44 12,6 C 11,1 C 96 % 1006,5 hPa 0,0 l/m 0 min 0 min 0,0 UV-I 0 W/m 0,0 km/h (0 Bft)
13.08.2014 04:46 12,5 C 11,1 C 96 % 1006,7 hPa 0,0 l/m 0 min 0 min 0,0 UV-I 0 W/m 3,5 km/h (1 Bft)
13.08.2014 04:48 12,5 C 11,1 C 96 % 1006,7 hPa 0,0 l/m 0 min 0 min 0,0 UV-I 0 W/m 3,5 km/h (1 Bft)
13.08.2014 04:50 12,5 C 11,1 C 97 % 1006,8 hPa 0,0 l/m 0 min 0 min 0,0 UV-I 0 W/m 0,0 km/h (0 Bft)
13.08.2014 04:52 12,6 C 11,1 C 97 % 1006,9 hPa 0,0 l/m 0 min 0 min 0,0 UV-I 0 W/m 0,0 km/h (0 Bft)
13.08.2014 04:54 12,6 C 11,1 C 97 % 1006,9 hPa 0,0 l/m 0 min 0 min 0,0 UV-I 0 W/m 3,5 km/h (1 Bft)
13.08.2014 04:56 12,6 C 11,1 C 97 % 1007,0 hPa 0,0 l/m 0 min 0 min 0,0 UV-I 0 W/m 0,0 km/h (0 Bft)
13.08.2014 04:58 12,6 C 11,1 C 97 % 1007,0 hPa 0,0 l/m 0 min 0 min 0,0 UV-I 0 W/m 0,0 km/h (0 Bft)
13.08.2014 05:00 12,6 C 11,1 C 97 % 1006,9 hPa 0,0 l/m 0 min 0 min 0,0 UV-I 0 W/m 10,7 km/h (2 Bft)
13.08.2014 05:02 12,6 C 11,1 C 97 % 1006,8 hPa 0,0 l/m 0 min 0 min 0,0 UV-I 0 W/m 7,1 km/h (2 Bft)
13.08.2014 05:04 12,6 C 11,1 C 97 % 1006,8 hPa 0,0 l/m 0 min 0 min 0,0 UV-I 0 W/m 0,0 km/h (0 Bft)
13.08.2014 05:06 12,5 C 11,1 C 97 % 1006,8 hPa 0,0 l/m 0 min 0 min 0,0 UV-I 0 W/m 0,0 km/h (0 Bft)
13.08.2014 05:08 12,5 C 11,1 C 97 % 1006,7 hPa 0,0 l/m 0 min 0 min 0,0 UV-I 0 W/m 10,7 km/h (2 Bft)
13.08.2014 05:10 12,4 C 11,1 C 97 % 1006,7 hPa 0,0 l/m 0 min 0 min 0,0 UV-I 0 W/m 0,0 km/h (0 Bft)
13.08.2014 05:12 12,4 C 11,1 C 97 % 1006,7 hPa 0,0 l/m 0 min 0 min 0,0 UV-I 0 W/m 0,0 km/h (0 Bft)
13.08.2014 05:14 12,4 C 11,1 C 97 % 1006,7 hPa 0,0 l/m 0 min 0 min 0,0 UV-I 0 W/m 0,0 km/h (0 Bft)
13.08.2014 05:16 12,4 C 11,1 C 97 % 1006,7 hPa 0,0 l/m 0 min 0 min 0,0 UV-I 0 W/m 0,0 km/h (0 Bft)
13.08.2014 05:18 12,3 C 11,1 C 97 % 1006,7 hPa 0,0 l/m 0 min 0 min 0,0 UV-I 0 W/m 0,0 km/h (0 Bft)
13.08.2014 05:20 12,3 C 10,6 C 97 % 1006,7 hPa 0,0 l/m 0 min 0 min 0,0 UV-I 0 W/m 0,0 km/h (0 Bft)
13.08.2014 05:22 12,2 C 10,6 C 97 % 1006,7 hPa 0,0 l/m 0 min 0 min 0,0 UV-I 0 W/m 0,0 km/h (0 Bft)
13.08.2014 05:24 12,2 C 10,6 C 97 % 1006,6 hPa 0,0 l/m 0 min 0 min 0,0 UV-I 0 W/m 0,0 km/h (0 Bft)
13.08.2014 05:26 12,2 C 10,6 C 97 % 1006,5 hPa 0,0 l/m 0 min 0 min 0,0 UV-I 0 W/m 0,0 km/h (0 Bft)
13.08.2014 05:28 12,2 C 10,6 C 97 % 1006,5 hPa 0,0 l/m 0 min 0 min 0,0 UV-I 0 W/m 0,0 km/h (0 Bft)
13.08.2014 05:30 12,1 C 10,6 C 97 % 1006,5 hPa 0,0 l/m 0 min 0 min 0,0 UV-I 0 W/m 0,0 km/h (0 Bft)
13.08.2014 05:32 12,1 C 10,6 C 97 % 1006,5 hPa 0,0 l/m 0 min 0 min 0,0 UV-I 0 W/m 0,0 km/h (0 Bft)
13.08.2014 05:34 12,0 C 10,6 C 97 % 1006,6 hPa 0,0 l/m 0 min 0 min 0,0 UV-I 0 W/m 0,0 km/h (0 Bft)
13.08.2014 05:36 12,0 C 10,6 C 97 % 1006,4 hPa 0,0 l/m 0 min 0 min 0,0 UV-I 0 W/m 0,0 km/h (0 Bft)
13.08.2014 05:38 11,9 C 10,6 C 97 % 1006,3 hPa 0,0 l/m 0 min 0 min 0,0 UV-I 0 W/m 0,0 km/h (0 Bft)
13.08.2014 05:40 11,9 C 10,6 C 97 % 1006,3 hPa 0,0 l/m 0 min 0 min 0,0 UV-I 0 W/m 0,0 km/h (0 Bft)
13.08.2014 05:42 11,9 C 10,6 C 97 % 1006,3 hPa 0,0 l/m 0 min 0 min 0,0 UV-I 0 W/m 0,0 km/h (0 Bft)
13.08.2014 05:44 11,9 C 10,6 C 97 % 1006,3 hPa 0,0 l/m 0 min 0 min 0,0 UV-I 0 W/m 0,0 km/h (0 Bft)
13.08.2014 05:46 11,9 C 10,6 C 97 % 1006,3 hPa 0,0 l/m 0 min 0 min 0,0 UV-I 0 W/m 0,0 km/h (0 Bft)
13.08.2014 05:48 11,8 C 10,6 C 97 % 1006,4 hPa 0,0 l/m 0 min 0 min 0,0 UV-I 0 W/m 10,7 km/h (2 Bft)
13.08.2014 05:50 11,8 C 10,6 C 97 % 1006,2 hPa 0,0 l/m 0 min 0 min 0,0 UV-I 0 W/m 7,1 km/h (2 Bft)
13.08.2014 05:52 11,8 C 10,6 C 97 % 1006,2 hPa 0,0 l/m 0 min 0 min 0,0 UV-I 0 W/m 0,0 km/h (0 Bft)
13.08.2014 05:54 11,8 C 10,6 C 97 % 1006,1 hPa 0,0 l/m 0 min 0 min 0,0 UV-I 0 W/m 3,5 km/h (1 Bft)
13.08.2014 05:56 11,8 C 10,6 C 97 % 1006,2 hPa 0,0 l/m 0 min 0 min 0,0 UV-I 0 W/m 0,0 km/h (0 Bft)
13.08.2014 05:58 11,8 C 10,6 C 97 % 1006,2 hPa 0,0 l/m 0 min 0 min 0,0 UV-I 0 W/m 3,5 km/h (1 Bft)
13.08.2014 06:00 11,8 C 10,6 C 97 % 1006,2 hPa 0,0 l/m 0 min 0 min 0,0 UV-I 0 W/m 0,0 km/h (0 Bft)
13.08.2014 06:02 11,9 C 10,6 C 98 % 1006,2 hPa 0,0 l/m 0 min 0 min 0,0 UV-I 0 W/m 0,0 km/h (0 Bft)
13.08.2014 06:06 11,9 C 10,6 C 98 % 1006,4 hPa 0,0 l/m 0 min 0 min 0,0 UV-I 0 W/m 0,0 km/h (0 Bft)
13.08.2014 06:08 11,9 C 10,6 C 98 % 1006,4 hPa 0,0 l/m 0 min 0 min 0,0 UV-I 0 W/m 0,0 km/h (0 Bft)
13.08.2014 06:10 11,9 C 10,6 C 98 % 1006,3 hPa 0,0 l/m 0 min 0 min 0,0 UV-I 0 W/m 0,0 km/h (0 Bft)
13.08.2014 06:12 11,9 C 10,6 C 98 % 1006,3 hPa 0,0 l/m 0 min 0 min 0,0 UV-I 0 W/m 0,0 km/h (0 Bft)
13.08.2014 06:14 11,9 C 10,6 C 98 % 1006,2 hPa 0,0 l/m 0 min 0 min 0,0 UV-I 0 W/m 3,5 km/h (1 Bft)
13.08.2014 06:16 12,0 C 10,6 C 98 % 1006,2 hPa 0,0 l/m 0 min 0 min 0,0 UV-I 0 W/m 3,5 km/h (1 Bft)
13.08.2014 06:18 12,0 C 11,1 C 98 % 1006,2 hPa 0,0 l/m 0 min 0 min 0,0 UV-I 0 W/m 0,0 km/h (0 Bft)
13.08.2014 06:20 12,1 C 11,1 C 98 % 1006,1 hPa 0,0 l/m 0 min 0 min 0,0 UV-I 0 W/m 7,1 km/h (2 Bft)
13.08.2014 06:22 12,1 C 11,1 C 98 % 1006,0 hPa 0,0 l/m 0 min 0 min 0,0 UV-I 0 W/m 7,1 km/h (2 Bft)
13.08.2014 06:24 12,1 C 11,1 C 98 % 1006,0 hPa 0,0 l/m 0 min 0 min 0,0 UV-I 6 W/m 0,0 km/h (0 Bft)
13.08.2014 06:26 12,1 C 11,1 C 98 % 1006,0 hPa 0,0 l/m 0 min 0 min 0,0 UV-I 7 W/m 3,5 km/h (1 Bft)
13.08.2014 06:28 12,2 C 11,1 C 98 % 1005,9 hPa 0,0 l/m 0 min 0 min 0,0 UV-I 10 W/m 0,0 km/h (0 Bft)
13.08.2014 06:30 12,2 C 11,1 C 98 % 1005,8 hPa 0,0 l/m 0 min 0 min 0,0 UV-I 12 W/m 3,5 km/h (1 Bft)
13.08.2014 06:32 12,2 C 11,1 C 98 % 1005,8 hPa 0,0 l/m 2 min 0 min 0,0 UV-I 14 W/m 0,0 km/h (0 Bft)
13.08.2014 06:34 12,2 C 11,1 C 98 % 1005,8 hPa 0,0 l/m 2 min 0 min 0,0 UV-I 14 W/m 0,0 km/h (0 Bft)
13.08.2014 06:36 12,2 C 11,1 C 98 % 1005,8 hPa 0,0 l/m 0 min 0 min 0,0 UV-I 14 W/m 0,0 km/h (0 Bft)
13.08.2014 06:38 12,2 C 11,1 C 98 % 1005,8 hPa 0,0 l/m 0 min 0 min 0,0 UV-I 14 W/m 0,0 km/h (0 Bft)
13.08.2014 06:40 12,2 C 11,1 C 98 % 1005,8 hPa 0,0 l/m 0 min 0 min 0,0 UV-I 14 W/m 0,0 km/h (0 Bft)
13.08.2014 06:42 12,2 C 11,1 C 98 % 1005,8 hPa 0,0 l/m 0 min 0 min 0,0 UV-I 14 W/m 0,0 km/h (0 Bft)
13.08.2014 06:44 12,2 C 11,1 C 98 % 1005,9 hPa 0,0 l/m 0 min 0 min 0,0 UV-I 16 W/m 0,0 km/h (0 Bft)
13.08.2014 06:46 12,2 C 11,1 C 98 % 1006,0 hPa 0,0 l/m 0 min 0 min 0,0 UV-I 17 W/m 0,0 km/h (0 Bft)
13.08.2014 06:48 12,2 C 11,1 C 98 % 1005,9 hPa 0,0 l/m 0 min 0 min 0,0 UV-I 18 W/m 0,0 km/h (0 Bft)
13.08.2014 06:50 12,2 C 11,1 C 98 % 1005,8 hPa 0,0 l/m 0 min 0 min 0,0 UV-I 20 W/m 3,5 km/h (1 Bft)
13.08.2014 06:52 12,2 C 11,1 C 98 % 1005,8 hPa 0,0 l/m 0 min 0 min 0,0 UV-I 22 W/m 0,0 km/h (0 Bft)
13.08.2014 06:54 12,2 C 11,1 C 98 % 1005,9 hPa 0,0 l/m 0 min 0 min 0,0 UV-I 24 W/m 3,5 km/h (1 Bft)
13.08.2014 06:56 12,2 C 11,1 C 98 % 1005,9 hPa 0,0 l/m 0 min 0 min 0,0 UV-I 27 W/m 0,0 km/h (0 Bft)
13.08.2014 06:58 12,2 C 11,7 C 98 % 1005,8 hPa 0,0 l/m 0 min 0 min 0,0 UV-I 29 W/m 3,5 km/h (1 Bft)
13.08.2014 07:00 12,3 C 11,7 C 98 % 1005,8 hPa 0,0 l/m 0 min 0 min 0,0 UV-I 31 W/m 0,0 km/h (0 Bft)
13.08.2014 07:02 12,2 C 11,7 C 98 % 1005,9 hPa 0,0 l/m 0 min 0 min 0,0 UV-I 33 W/m 0,0 km/h (0 Bft)
13.08.2014 07:04 12,3 C 11,7 C 98 % 1005,8 hPa 0,0 l/m 0 min 0 min 0,0 UV-I 35 W/m 0,0 km/h (0 Bft)
13.08.2014 07:06 12,3 C 11,7 C 98 % 1005,8 hPa 0,0 l/m 0 min 0 min 0,0 UV-I 36 W/m 10,7 km/h (2 Bft)
13.08.2014 07:08 12,3 C 11,7 C 98 % 1005,9 hPa 0,0 l/m 0 min 0 min 0,0 UV-I 39 W/m 14,2 km/h (3 Bft)
13.08.2014 07:10 12,3 C 11,7 C 98 % 1005,9 hPa 0,0 l/m 0 min 0 min 0,0 UV-I 41 W/m 10,7 km/h (2 Bft)
13.08.2014 07:12 12,3 C 11,7 C 98 % 1005,9 hPa 0,0 l/m 0 min 0 min 0,0 UV-I 44 W/m 10,7 km/h (2 Bft)
13.08.2014 07:14 12,3 C 11,7 C 98 % 1005,9 hPa 0,0 l/m 0 min 0 min 0,0 UV-I 47 W/m 7,1 km/h (2 Bft)
13.08.2014 07:16 12,3 C 11,7 C 98 % 1005,8 hPa 0,0 l/m 0 min 0 min 0,0 UV-I 49 W/m 3,5 km/h (1 Bft)
13.08.2014 07:18 12,3 C 11,7 C 98 % 1005,8 hPa 0,0 l/m 0 min 0 min 0,0 UV-I 50 W/m 0,0 km/h (0 Bft)
13.08.2014 07:20 12,3 C 11,7 C 98 % 1005,7 hPa 0,0 l/m 0 min 0 min 0,0 UV-I 53 W/m 0,0 km/h (0 Bft)
13.08.2014 07:22 12,4 C 11,7 C 98 % 1005,7 hPa 0,0 l/m 0 min 0 min 0,0 UV-I 56 W/m 3,5 km/h (1 Bft)
13.08.2014 07:24 12,4 C 11,7 C 98 % 1005,6 hPa 0,0 l/m 0 min 0 min 0,0 UV-I 62 W/m 0,0 km/h (0 Bft)
13.08.2014 07:26 12,4 C 11,7 C 98 % 1005,6 hPa 0,0 l/m 0 min 0 min 0,0 UV-I 67 W/m 0,0 km/h (0 Bft)
13.08.2014 07:28 12,4 C 11,7 C 98 % 1005,6 hPa 0,0 l/m 0 min 0 min 0,0 UV-I 69 W/m 0,0 km/h (0 Bft)
13.08.2014 07:30 12,4 C 11,7 C 98 % 1005,5 hPa 0,0 l/m 0 min 0 min 0,0 UV-I 69 W/m 10,7 km/h (2 Bft)
13.08.2014 07:32 12,4 C 11,7 C 98 % 1005,4 hPa 0,0 l/m 0 min 0 min 0,0 UV-I 71 W/m 0,0 km/h (0 Bft)
13.08.2014 07:34 12,5 C 11,7 C 98 % 1005,3 hPa 0,0 l/m 0 min 0 min 0,0 UV-I 71 W/m 0,0 km/h (0 Bft)
13.08.2014 07:36 12,5 C 11,7 C 98 % 1005,2 hPa 0,0 l/m 0 min 0 min 0,0 UV-I 78 W/m 0,0 km/h (0 Bft)
13.08.2014 07:38 12,6 C 11,7 C 98 % 1005,3 hPa 0,0 l/m 0 min 0 min 0,0 UV-I 79 W/m 3,5 km/h (1 Bft)
13.08.2014 07:40 12,6 C 12,2 C 98 % 1005,3 hPa 0,0 l/m 0 min 0 min 0,0 UV-I 84 W/m 0,0 km/h (0 Bft)
13.08.2014 07:42 12,7 C 12,2 C 98 % 1005,3 hPa 0,0 l/m 2 min 0 min 0,0 UV-I 102 W/m 14,2 km/h (3 Bft)
13.08.2014 07:44 12,7 C 12,2 C 98 % 1005,3 hPa 0,0 l/m 2 min 0 min 0,0 UV-I 152 W/m 24,7 km/h (4 Bft)
13.08.2014 07:46 12,7 C 12,2 C 98 % 1005,2 hPa 0,0 l/m 2 min 0 min 0,0 UV-I 153 W/m 24,7 km/h (4 Bft)
13.08.2014 07:48 12,8 C 12,2 C 99 % 1005,2 hPa 0,0 l/m 2 min 0 min 0,0 UV-I 154 W/m 21,3 km/h (4 Bft)
13.08.2014 07:50 12,8 C 12,2 C 99 % 1005,1 hPa 0,0 l/m 2 min 0 min 0,0 UV-I 158 W/m 17,7 km/h (3 Bft)
13.08.2014 07:52 12,8 C 12,2 C 99 % 1005,2 hPa 0,0 l/m 2 min 0 min 0,0 UV-I 179 W/m 14,2 km/h (3 Bft)
13.08.2014 07:54 12,9 C 12,2 C 99 % 1005,2 hPa 0,0 l/m 2 min 0 min 0,0 UV-I 161 W/m 14,2 km/h (3 Bft)
13.08.2014 07:56 12,9 C 12,2 C 98 % 1005,3 hPa 0,0 l/m 2 min 0 min 0,0 UV-I 144 W/m 24,7 km/h (4 Bft)
13.08.2014 07:58 13,0 C 12,2 C 98 % 1005,2 hPa 0,0 l/m 2 min 0 min 0,0 UV-I 160 W/m 14,2 km/h (3 Bft)
13.08.2014 08:00 13,1 C 12,2 C 98 % 1005,2 hPa 0,0 l/m 2 min 0 min 0,0 UV-I 146 W/m 17,7 km/h (3 Bft)
13.08.2014 08:02 13,1 C 12,8 C 98 % 1005,3 hPa 0,0 l/m 2 min 0 min 0,0 UV-I 136 W/m 17,7 km/h (3 Bft)
13.08.2014 08:04 13,1 C 12,8 C 98 % 1005,2 hPa 0,0 l/m 0 min 0 min 0,0 UV-I 125 W/m 21,3 km/h (4 Bft)
13.08.2014 08:06 13,1 C 12,8 C 98 % 1005,2 hPa 0,0 l/m 2 min 0 min 0,0 UV-I 147 W/m 17,7 km/h (3 Bft)
13.08.2014 08:08 13,1 C 12,8 C 98 % 1005,4 hPa 0,0 l/m 2 min 0 min 0,0 UV-I 175 W/m 17,7 km/h (3 Bft)
13.08.2014 08:10 13,2 C 12,8 C 99 % 1005,4 hPa 0,0 l/m 2 min 0 min 0,0 UV-I 164 W/m 17,7 km/h (3 Bft)
13.08.2014 08:12 13,2 C 12,8 C 98 % 1005,4 hPa 0,0 l/m 2 min 0 min 0,0 UV-I 154 W/m 0,0 km/h (0 Bft)
13.08.2014 08:14 13,3 C 12,8 C 98 % 1005,5 hPa 0,0 l/m 2 min 0 min 0,0 UV-I 180 W/m 3,5 km/h (1 Bft)
13.08.2014 08:16 13,4 C 12,8 C 98 % 1005,4 hPa 0,0 l/m 2 min 0 min 0,0 UV-I 210 W/m 10,7 km/h (2 Bft)
13.08.2014 08:18 13,4 C 12,8 C 98 % 1005,5 hPa 0,0 l/m 2 min 0 min 0,0 UV-I 215 W/m 17,7 km/h (3 Bft)
13.08.2014 08:20 13,6 C 12,8 C 98 % 1005,6 hPa 0,0 l/m 2 min 0 min 0,0 UV-I 220 W/m 17,7 km/h (3 Bft)
13.08.2014 08:22 13,6 C 13,3 C 98 % 1005,6 hPa 0,0 l/m 2 min 0 min 0,0 UV-I 226 W/m 24,7 km/h (4 Bft)
13.08.2014 08:24 13,7 C 13,3 C 98 % 1005,6 hPa 0,0 l/m 2 min 0 min 0,0 UV-I 255 W/m 24,7 km/h (4 Bft)
13.08.2014 08:26 13,8 C 13,3 C 98 % 1005,6 hPa 0,0 l/m 2 min 0 min 0,0 UV-I 219 W/m 17,7 km/h (3 Bft)
13.08.2014 08:28 13,9 C 13,3 C 98 % 1005,6 hPa 0,0 l/m 2 min 0 min 0,0 UV-I 274 W/m 10,7 km/h (2 Bft)
13.08.2014 08:30 14,1 C 13,3 C 98 % 1005,5 hPa 0,0 l/m 2 min 0 min 0,0 UV-I 267 W/m 17,7 km/h (3 Bft)
13.08.2014 08:32 14,2 C 13,9 C 98 % 1005,6 hPa 0,0 l/m 2 min 0 min 0,0 UV-I 279 W/m 24,7 km/h (4 Bft)
13.08.2014 08:34 14,2 C 13,9 C 98 % 1005,6 hPa 0,0 l/m 2 min 0 min 0,0 UV-I 294 W/m 17,7 km/h (3 Bft)
13.08.2014 08:36 14,4 C 13,9 C 98 % 1005,7 hPa 0,0 l/m 2 min 0 min 0,0 UV-I 300 W/m 17,7 km/h (3 Bft)
13.08.2014 08:38 14,5 C 13,9 C 98 % 1005,8 hPa 0,0 l/m 2 min 0 min 0,0 UV-I 276 W/m 28,2 km/h (4 Bft)
13.08.2014 08:40 14,6 C 14,4 C 98 % 1005,8 hPa 0,0 l/m 2 min 0 min 0,0 UV-I 297 W/m 21,3 km/h (4 Bft)
13.08.2014 08:42 14,7 C 14,4 C 98 % 1005,8 hPa 0,0 l/m 2 min 0 min 0,0 UV-I 289 W/m 17,7 km/h (3 Bft)
13.08.2014 08:44 14,8 C 14,4 C 98 % 1005,9 hPa 0,0 l/m 2 min 0 min 0,0 UV-I 275 W/m 24,7 km/h (4 Bft)
13.08.2014 08:46 14,9 C 14,4 C 97 % 1005,8 hPa 0,0 l/m 2 min 0 min 0,0 UV-I 274 W/m 28,2 km/h (4 Bft)
13.08.2014 08:48 15,0 C 14,4 C 97 % 1005,8 hPa 0,0 l/m 2 min 0 min 0,0 UV-I 301 W/m 31,7 km/h (5 Bft)
13.08.2014 08:50 15,2 C 14,4 C 97 % 1005,7 hPa 0,0 l/m 2 min 0 min 0,0 UV-I 330 W/m 24,7 km/h (4 Bft)
13.08.2014 08:52 15,3 C 15,0 C 96 % 1005,7 hPa 0,0 l/m 2 min 0 min 0,0 UV-I 338 W/m 21,3 km/h (4 Bft)
13.08.2014 08:54 15,4 C 15,0 C 96 % 1005,6 hPa 0,0 l/m 2 min 0 min 0,0 UV-I 341 W/m 21,3 km/h (4 Bft)
13.08.2014 08:56 15,6 C 15,0 C 96 % 1005,6 hPa 0,0 l/m 2 min 0 min 0,0 UV-I 305 W/m 14,2 km/h (3 Bft)
13.08.2014 08:58 15,7 C 15,0 C 95 % 1005,7 hPa 0,0 l/m 2 min 0 min 0,0 UV-I 319 W/m 14,2 km/h (3 Bft)
13.08.2014 09:00 15,8 C 15,0 C 95 % 1005,7 hPa 0,0 l/m 2 min 0 min 0,0 UV-I 311 W/m 10,7 km/h (2 Bft)
13.08.2014 09:02 15,9 C 15,6 C 95 % 1005,7 hPa 0,0 l/m 2 min 0 min 0,0 UV-I 276 W/m 10,7 km/h (2 Bft)
13.08.2014 09:04 16,1 C 15,6 C 94 % 1005,7 hPa 0,0 l/m 2 min 0 min 0,0 UV-I 277 W/m 14,2 km/h (3 Bft)
13.08.2014 09:06 16,1 C 15,6 C 93 % 1005,7 hPa 0,0 l/m 2 min 0 min 0,0 UV-I 270 W/m 17,7 km/h (3 Bft)
13.08.2014 09:08 16,2 C 15,6 C 93 % 1005,7 hPa 0,0 l/m 2 min 0 min 0,0 UV-I 271 W/m 10,7 km/h (2 Bft)
13.08.2014 09:10 16,3 C 15,6 C 92 % 1005,8 hPa 0,0 l/m 2 min 0 min 0,0 UV-I 301 W/m 3,5 km/h (1 Bft)
13.08.2014 09:12 16,3 C 15,6 C 92 % 1005,8 hPa 0,0 l/m 2 min 0 min 0,0 UV-I 296 W/m 17,7 km/h (3 Bft)
13.08.2014 09:14 16,5 C 15,6 C 92 % 1005,8 hPa 0,0 l/m 2 min 0 min 0,0 UV-I 286 W/m 10,7 km/h (2 Bft)
13.08.2014 09:16 16,5 C 16,1 C 91 % 1005,7 hPa 0,0 l/m 2 min 0 min 0,0 UV-I 289 W/m 17,7 km/h (3 Bft)
13.08.2014 09:18 16,6 C 16,1 C 91 % 1005,7 hPa 0,0 l/m 2 min 0 min 0,0 UV-I 271 W/m 10,7 km/h (2 Bft)
13.08.2014 09:20 16,7 C 16,1 C 90 % 1005,7 hPa 0,0 l/m 2 min 0 min 0,0 UV-I 252 W/m 21,3 km/h (4 Bft)
13.08.2014 09:22 16,7 C 15,6 C 90 % 1005,7 hPa 0,0 l/m 2 min 0 min 0,0 UV-I 257 W/m 24,7 km/h (4 Bft)
13.08.2014 09:24 16,7 C 15,6 C 89 % 1005,7 hPa 0,0 l/m 2 min 0 min 0,0 UV-I 229 W/m 24,7 km/h (4 Bft)
13.08.2014 09:26 16,7 C 15,6 C 88 % 1005,6 hPa 0,0 l/m 0 min 0 min 0,0 UV-I 217 W/m 21,3 km/h (4 Bft)
13.08.2014 09:28 16,7 C 15,6 C 89 % 1005,6 hPa 0,0 l/m 0 min 0 min 0,0 UV-I 215 W/m 31,7 km/h (5 Bft)
13.08.2014 09:30 16,7 C 15,6 C 88 % 1005,5 hPa 0,0 l/m 0 min 0 min 0,0 UV-I 226 W/m 14,2 km/h (3 Bft)
13.08.2014 09:32 16,7 C 16,1 C 88 % 1005,5 hPa 0,0 l/m 2 min 0 min 0,0 UV-I 247 W/m 17,7 km/h (3 Bft)
13.08.2014 09:34 16,7 C 16,1 C 89 % 1005,4 hPa 0,0 l/m 2 min 0 min 0,0 UV-I 245 W/m 17,7 km/h (3 Bft)
13.08.2014 09:36 16,8 C 16,1 C 89 % 1005,2 hPa 0,0 l/m 2 min 0 min 0,4 UV-I 247 W/m 14,2 km/h (3 Bft)
13.08.2014 09:38 16,8 C 16,1 C 88 % 1005,1 hPa 0,0 l/m 2 min 0 min 0,5 UV-I 261 W/m 14,2 km/h (3 Bft)
13.08.2014 09:40 16,9 C 16,1 C 88 % 1005,1 hPa 0,0 l/m 2 min 0 min 0,6 UV-I 267 W/m 21,3 km/h (4 Bft)
13.08.2014 09:42 16,9 C 16,1 C 88 % 1005,0 hPa 0,0 l/m 2 min 0 min 0,6 UV-I 267 W/m 14,2 km/h (3 Bft)
13.08.2014 09:44 16,9 C 16,1 C 88 % 1004,9 hPa 0,0 l/m 2 min 0 min 0,7 UV-I 284 W/m 0,0 km/h (0 Bft)
13.08.2014 09:46 16,9 C 16,1 C 88 % 1004,9 hPa 0,0 l/m 2 min 0 min 0,7 UV-I 302 W/m 0,0 km/h (0 Bft)
13.08.2014 09:48 17,1 C 16,7 C 89 % 1004,8 hPa 0,0 l/m 2 min 0 min 0,8 UV-I 319 W/m 10,7 km/h (2 Bft)
13.08.2014 09:50 17,0 C 16,7 C 88 % 1004,7 hPa 0,0 l/m 2 min 0 min 0,8 UV-I 307 W/m 14,2 km/h (3 Bft)
13.08.2014 09:52 17,1 C 16,7 C 88 % 1004,7 hPa 0,0 l/m 2 min 0 min 0,8 UV-I 317 W/m 0,0 km/h (0 Bft)
13.08.2014 09:54 17,1 C 16,7 C 88 % 1004,8 hPa 0,0 l/m 2 min 0 min 0,9 UV-I 308 W/m 0,0 km/h (0 Bft)
13.08.2014 09:56 17,1 C 17,2 C 87 % 1004,7 hPa 0,0 l/m 2 min 0 min 1,0 UV-I 315 W/m 0,0 km/h (0 Bft)
13.08.2014 09:58 17,2 C 17,2 C 87 % 1004,7 hPa 0,0 l/m 2 min 0 min 1,0 UV-I 326 W/m 21,3 km/h (4 Bft)
13.08.2014 10:00 17,2 C 16,7 C 87 % 1004,7 hPa 0,0 l/m 2 min 0 min 0,9 UV-I 285 W/m 24,7 km/h (4 Bft)
13.08.2014 10:02 17,1 C 16,7 C 87 % 1004,7 hPa 0,0 l/m 0 min 0 min 0,8 UV-I 242 W/m 14,2 km/h (3 Bft)
13.08.2014 10:04 17,1 C 16,7 C 87 % 1004,7 hPa 0,0 l/m 0 min 0 min 0,8 UV-I 228 W/m 14,2 km/h (3 Bft)
13.08.2014 10:06 17,1 C 16,1 C 87 % 1004,8 hPa 0,0 l/m 0 min 0 min 0,7 UV-I 192 W/m 14,2 km/h (3 Bft)
13.08.2014 10:08 17,0 C 16,1 C 87 % 1004,8 hPa 0,0 l/m 0 min 0 min 0,7 UV-I 199 W/m 3,5 km/h (1 Bft)
13.08.2014 10:10 16,9 C 16,1 C 88 % 1004,7 hPa 0,0 l/m 0 min 0 min 0,7 UV-I 201 W/m 10,7 km/h (2 Bft)
13.08.2014 10:12 17,0 C 16,1 C 88 % 1004,6 hPa 0,0 l/m 0 min 0 min 0,9 UV-I 264 W/m 7,1 km/h (2 Bft)
13.08.2014 10:14 17,0 C 16,7 C 88 % 1004,7 hPa 0,0 l/m 0 min 0 min 0,9 UV-I 240 W/m 14,2 km/h (3 Bft)
13.08.2014 10:16 17,1 C 16,1 C 88 % 1004,7 hPa 0,0 l/m 0 min 0 min 0,9 UV-I 232 W/m 17,7 km/h (3 Bft)
13.08.2014 10:18 17,1 C 17,2 C 88 % 1004,8 hPa 0,0 l/m 0 min 0 min 1,2 UV-I 209 W/m 14,2 km/h (3 Bft)
13.08.2014 10:20 17,3 C 17,8 C 88 % 1004,7 hPa 0,0 l/m 2 min 0 min 1,1 UV-I 292 W/m 14,2 km/h (3 Bft)
13.08.2014 10:22 17,4 C 17,2 C 88 % 1004,7 hPa 0,0 l/m 0 min 0 min 1,0 UV-I 234 W/m 17,7 km/h (3 Bft)
13.08.2014 10:24 17,4 C 16,7 C 87 % 1004,7 hPa 0,0 l/m 0 min 0 min 0,9 UV-I 195 W/m 17,7 km/h (3 Bft)
13.08.2014 10:26 17,3 C 16,7 C 87 % 1004,7 hPa 0,0 l/m 0 min 0 min 1,1 UV-I 216 W/m 14,2 km/h (3 Bft)
13.08.2014 10:28 17,2 C 16,7 C 87 % 1004,7 hPa 0,0 l/m 0 min 0 min 1,1 UV-I 210 W/m 14,2 km/h (3 Bft)
13.08.2014 10:30 17,2 C 16,7 C 87 % 1004,6 hPa 0,0 l/m 0 min 0 min 1,3 UV-I 258 W/m 14,2 km/h (3 Bft)
13.08.2014 10:32 17,2 C 16,7 C 87 % 1004,7 hPa 0,0 l/m 2 min 0 min 1,5 UV-I 355 W/m 14,2 km/h (3 Bft)
13.08.2014 10:34 17,3 C 17,2 C 87 % 1004,7 hPa 0,0 l/m 2 min 0 min 1,7 UV-I 374 W/m 10,7 km/h (2 Bft)
13.08.2014 10:36 17,6 C 17,8 C 88 % 1004,6 hPa 0,0 l/m 2 min 0 min 2,2 UV-I 520 W/m 10,7 km/h (2 Bft)
13.08.2014 10:38 17,9 C 17,8 C 87 % 1004,7 hPa 0,0 l/m 2 min 0 min 2,2 UV-I 631 W/m 7,1 km/h (2 Bft)
13.08.2014 10:40 18,2 C 17,8 C 86 % 1004,7 hPa 0,0 l/m 2 min 0 min 2,2 UV-I 629 W/m 14,2 km/h (3 Bft)
13.08.2014 10:42 18,2 C 17,8 C 84 % 1004,6 hPa 0,0 l/m 2 min 0 min 2,2 UV-I 592 W/m 17,7 km/h (3 Bft)
13.08.2014 10:44 18,2 C 17,8 C 84 % 1004,7 hPa 0,0 l/m 2 min 0 min 1,7 UV-I 638 W/m 14,2 km/h (3 Bft)
13.08.2014 10:46 18,2 C 17,2 C 85 % 1004,7 hPa 0,0 l/m 2 min 0 min 1,4 UV-I 445 W/m 14,2 km/h (3 Bft)
13.08.2014 10:48 18,0 C 17,2 C 84 % 1004,7 hPa 0,0 l/m 0 min 0 min 1,4 UV-I 252 W/m 14,2 km/h (3 Bft)
13.08.2014 10:50 17,9 C 17,2 C 85 % 1004,8 hPa 0,0 l/m 0 min 0 min 1,4 UV-I 243 W/m 14,2 km/h (3 Bft)
13.08.2014 10:52 17,9 C 17,2 C 85 % 1004,8 hPa 0,0 l/m 0 min 0 min 1,4 UV-I 247 W/m 10,7 km/h (2 Bft)
13.08.2014 10:54 17,9 C 17,2 C 84 % 1004,8 hPa 0,0 l/m 2 min 0 min 2,0 UV-I 467 W/m 0,0 km/h (0 Bft)
13.08.2014 10:56 17,9 C 17,2 C 84 % 1004,8 hPa 0,0 l/m 0 min 0 min 1,3 UV-I 313 W/m 0,0 km/h (0 Bft)
13.08.2014 10:58 17,8 C 17,2 C 84 % 1004,7 hPa 0,0 l/m 0 min 0 min 1,3 UV-I 223 W/m 0,0 km/h (0 Bft)
13.08.2014 11:00 17,8 C 16,7 C 84 % 1004,7 hPa 0,0 l/m 0 min 0 min 1,2 UV-I 197 W/m 0,0 km/h (0 Bft)
13.08.2014 11:02 17,8 C 16,7 C 85 % 1004,8 hPa 0,0 l/m 0 min 0 min 1,1 UV-I 185 W/m 0,0 km/h (0 Bft)
13.08.2014 11:04 17,8 C 16,7 C 85 % 1004,9 hPa 0,0 l/m 0 min 0 min 0,9 UV-I 163 W/m 10,7 km/h (2 Bft)
13.08.2014 11:06 17,8 C 16,7 C 85 % 1004,9 hPa 0,0 l/m 0 min 0 min 1,0 UV-I 198 W/m 0,0 km/h (0 Bft)
13.08.2014 11:08 17,8 C 16,7 C 85 % 1004,9 hPa 0,0 l/m 0 min 0 min 1,0 UV-I 228 W/m 3,5 km/h (1 Bft)
13.08.2014 11:10 17,9 C 17,2 C 86 % 1004,9 hPa 0,0 l/m 0 min 0 min 1,3 UV-I 292 W/m 0,0 km/h (0 Bft)
13.08.2014 11:12 18,3 C 17,8 C 87 % 1004,9 hPa 0,0 l/m 0 min 0 min 2,3 UV-I 315 W/m 0,0 km/h (0 Bft)
13.08.2014 11:14 18,4 C 17,8 C 83 % 1004,9 hPa 0,0 l/m 0 min 0 min 1,3 UV-I 274 W/m 10,7 km/h (2 Bft)
13.08.2014 11:16 18,3 C 17,8 C 83 % 1005,0 hPa 0,0 l/m 0 min 0 min 1,3 UV-I 236 W/m 10,7 km/h (2 Bft)
13.08.2014 11:18 18,3 C 17,8 C 83 % 1005,0 hPa 0,0 l/m 0 min 0 min 1,9 UV-I 278 W/m 3,5 km/h (1 Bft)
13.08.2014 11:20 18,4 C 17,8 C 84 % 1005,0 hPa 0,0 l/m 0 min 0 min 2,0 UV-I 288 W/m 10,7 km/h (2 Bft)
13.08.2014 11:22 18,4 C 17,8 C 83 % 1004,9 hPa 0,0 l/m 0 min 0 min 1,5 UV-I 251 W/m 17,7 km/h (3 Bft)
13.08.2014 11:24 18,4 C 17,8 C 84 % 1004,9 hPa 0,0 l/m 0 min 0 min 2,0 UV-I 257 W/m 21,3 km/h (4 Bft)
13.08.2014 11:26 18,6 C 17,8 C 84 % 1005,0 hPa 0,0 l/m 0 min 0 min 1,8 UV-I 263 W/m 17,7 km/h (3 Bft)
13.08.2014 11:28 18,4 C 17,8 C 82 % 1004,9 hPa 0,0 l/m 0 min 0 min 1,6 UV-I 232 W/m 17,7 km/h (3 Bft)
13.08.2014 11:30 18,4 C 17,8 C 83 % 1004,9 hPa 0,0 l/m 0 min 0 min 1,7 UV-I 259 W/m 14,2 km/h (3 Bft)
13.08.2014 11:32 18,4 C 17,8 C 82 % 1004,9 hPa 0,0 l/m 0 min 0 min 1,7 UV-I 216 W/m 3,5 km/h (1 Bft)
13.08.2014 11:34 18,3 C 17,8 C 82 % 1004,8 hPa 0,0 l/m 0 min 0 min 1,6 UV-I 187 W/m 10,7 km/h (2 Bft)
13.08.2014 11:36 18,4 C 17,8 C 83 % 1004,8 hPa 0,0 l/m 0 min 0 min 1,8 UV-I 196 W/m 0,0 km/h (0 Bft)
13.08.2014 11:38 18,4 C 18,3 C 83 % 1004,8 hPa 0,0 l/m 0 min 0 min 2,9 UV-I 195 W/m 10,7 km/h (2 Bft)
13.08.2014 11:40 18,8 C 18,9 C 84 % 1004,8 hPa 0,0 l/m 2 min 0 min 3,5 UV-I 784 W/m 10,7 km/h (2 Bft)
13.08.2014 11:42 19,4 C 19,4 C 81 % 1004,7 hPa 0,0 l/m 2 min 0 min 3,5 UV-I 806 W/m 0,0 km/h (0 Bft)
13.08.2014 11:44 19,8 C 19,4 C 80 % 1004,7 hPa 0,0 l/m 2 min 0 min 3,4 UV-I 803 W/m 0,0 km/h (0 Bft)
13.08.2014 11:46 19,8 C 20,0 C 77 % 1004,7 hPa 0,0 l/m 2 min 0 min 3,4 UV-I 839 W/m 7,1 km/h (2 Bft)
13.08.2014 11:48 20,1 C 20,0 C 78 % 1004,8 hPa 0,0 l/m 2 min 0 min 3,1 UV-I 846 W/m 10,7 km/h (2 Bft)
13.08.2014 11:50 20,1 C 19,4 C 78 % 1004,8 hPa 0,0 l/m 0 min 0 min 1,6 UV-I 333 W/m 14,2 km/h (3 Bft)
13.08.2014 11:52 19,9 C 19,4 C 79 % 1004,9 hPa 0,0 l/m 0 min 0 min 1,4 UV-I 242 W/m 21,3 km/h (4 Bft)
13.08.2014 11:54 19,7 C 18,9 C 79 % 1004,9 hPa 0,0 l/m 0 min 0 min 1,3 UV-I 228 W/m 14,2 km/h (3 Bft)
13.08.2014 11:56 19,5 C 18,9 C 79 % 1004,9 hPa 0,0 l/m 0 min 0 min 1,4 UV-I 235 W/m 10,7 km/h (2 Bft)
13.08.2014 11:58 19,3 C 18,9 C 79 % 1004,9 hPa 0,0 l/m 0 min 0 min 1,6 UV-I 263 W/m 0,0 km/h (0 Bft)
13.08.2014 12:00 19,3 C 18,9 C 79 % 1004,9 hPa 0,0 l/m 0 min 0 min 1,7 UV-I 282 W/m 7,1 km/h (2 Bft)
13.08.2014 12:02 19,2 C 18,9 C 77 % 1004,9 hPa 0,0 l/m 0 min 0 min 1,7 UV-I 288 W/m 14,2 km/h (3 Bft)
13.08.2014 12:06 19,3 C 18,9 C 80 % 1004,8 hPa 0,0 l/m 2 min 0 min 2,0 UV-I 379 W/m 17,7 km/h (3 Bft)
13.08.2014 12:08 19,4 C 18,9 C 79 % 1004,9 hPa 0,0 l/m 0 min 0 min 1,7 UV-I 323 W/m 17,7 km/h (3 Bft)
13.08.2014 12:10 19,3 C 18,9 C 77 % 1004,8 hPa 0,0 l/m 0 min 0 min 2,1 UV-I 314 W/m 17,7 km/h (3 Bft)
13.08.2014 12:12 19,3 C 19,4 C 78 % 1004,8 hPa 0,0 l/m 0 min 0 min 2,3 UV-I 339 W/m 28,2 km/h (4 Bft)
13.08.2014 12:14 19,5 C 19,4 C 78 % 1004,8 hPa 0,0 l/m 0 min 0 min 2,2 UV-I 359 W/m 21,3 km/h (4 Bft)
13.08.2014 12:16 19,5 C 19,4 C 78 % 1004,7 hPa 0,0 l/m 0 min 0 min 2,0 UV-I 363 W/m 10,7 km/h (2 Bft)
13.08.2014 12:18 19,5 C 19,4 C 78 % 1004,7 hPa 0,0 l/m 0 min 0 min 2,0 UV-I 344 W/m 17,7 km/h (3 Bft)
13.08.2014 12:20 19,6 C 19,4 C 78 % 1004,7 hPa 0,0 l/m 0 min 0 min 1,7 UV-I 323 W/m 14,2 km/h (3 Bft)
13.08.2014 12:22 19,7 C 20,0 C 78 % 1004,7 hPa 0,0 l/m 2 min 0 min 2,9 UV-I 413 W/m 14,2 km/h (3 Bft)
13.08.2014 12:24 19,8 C 20,0 C 77 % 1004,7 hPa 0,0 l/m 2 min 0 min 3,5 UV-I 507 W/m 10,7 km/h (2 Bft)
13.08.2014 12:26 20,0 C 20,6 C 78 % 1004,6 hPa 0,0 l/m 2 min 0 min 3,4 UV-I 514 W/m 14,2 km/h (3 Bft)
13.08.2014 12:28 20,1 C 20,6 C 74 % 1004,6 hPa 0,0 l/m 2 min 0 min 3,3 UV-I 527 W/m 14,2 km/h (3 Bft)
13.08.2014 12:30 20,3 C 20,6 C 75 % 1004,5 hPa 0,0 l/m 2 min 0 min 3,3 UV-I 744 W/m 10,7 km/h (2 Bft)
13.08.2014 12:32 20,4 C 20,6 C 75 % 1004,5 hPa 0,0 l/m 2 min 0 min 2,6 UV-I 744 W/m 17,7 km/h (3 Bft)
13.08.2014 12:34 20,5 C 20,0 C 75 % 1004,5 hPa 0,0 l/m 2 min 0 min 1,9 UV-I 411 W/m 21,3 km/h (4 Bft)
13.08.2014 12:36 20,3 C 19,4 C 73 % 1004,4 hPa 0,0 l/m 0 min 0 min 1,5 UV-I 219 W/m 21,3 km/h (4 Bft)
13.08.2014 12:38 19,9 C 18,9 C 73 % 1004,4 hPa 0,0 l/m 0 min 0 min 1,4 UV-I 201 W/m 21,3 km/h (4 Bft)
13.08.2014 12:40 19,7 C 18,9 C 74 % 1004,3 hPa 0,0 l/m 0 min 0 min 1,3 UV-I 182 W/m 21,3 km/h (4 Bft)
13.08.2014 12:42 19,4 C 18,3 C 73 % 1004,3 hPa 0,0 l/m 0 min 0 min 1,2 UV-I 171 W/m 21,3 km/h (4 Bft)
13.08.2014 12:44 19,3 C 18,3 C 74 % 1004,3 hPa 0,0 l/m 0 min 0 min 1,3 UV-I 173 W/m 21,3 km/h (4 Bft)
13.08.2014 12:46 19,2 C 18,3 C 74 % 1004,2 hPa 0,0 l/m 0 min 0 min 1,3 UV-I 179 W/m 3,5 km/h (1 Bft)
13.08.2014 12:48 19,2 C 18,3 C 76 % 1004,3 hPa 0,0 l/m 0 min 0 min 1,3 UV-I 184 W/m 0,0 km/h (0 Bft)
13.08.2014 12:50 19,2 C 18,3 C 77 % 1004,2 hPa 0,0 l/m 0 min 0 min 1,3 UV-I 187 W/m 0,0 km/h (0 Bft)
13.08.2014 12:52 19,1 C 18,3 C 77 % 1004,2 hPa 0,0 l/m 0 min 0 min 1,3 UV-I 189 W/m 0,0 km/h (0 Bft)
13.08.2014 12:54 19,0 C 18,3 C 76 % 1004,1 hPa 0,0 l/m 0 min 0 min 1,2 UV-I 192 W/m 0,0 km/h (0 Bft)
13.08.2014 12:56 19,1 C 18,3 C 77 % 1004,1 hPa 0,0 l/m 0 min 0 min 1,0 UV-I 185 W/m 0,0 km/h (0 Bft)
13.08.2014 12:58 19,1 C 18,3 C 76 % 1004,1 hPa 0,0 l/m 0 min 0 min 0,9 UV-I 189 W/m 0,0 km/h (0 Bft)
13.08.2014 13:00 19,1 C 18,3 C 76 % 1004,2 hPa 0,0 l/m 0 min 0 min 1,0 UV-I 207 W/m 0,0 km/h (0 Bft)
13.08.2014 13:02 19,1 C 18,3 C 77 % 1004,2 hPa 0,0 l/m 0 min 0 min 1,1 UV-I 265 W/m 14,2 km/h (3 Bft)
13.08.2014 13:04 19,1 C 18,3 C 77 % 1004,2 hPa 0,0 l/m 0 min 0 min 0,8 UV-I 175 W/m 21,3 km/h (4 Bft)
13.08.2014 13:06 19,1 C 18,3 C 79 % 1004,2 hPa 0,0 l/m 0 min 0 min 0,7 UV-I 158 W/m 17,7 km/h (3 Bft)
13.08.2014 13:08 19,0 C 18,3 C 78 % 1004,2 hPa 0,0 l/m 0 min 0 min 0,7 UV-I 159 W/m 21,3 km/h (4 Bft)
13.08.2014 13:09 19,0 C 18,3 C 77 % 1004,2 hPa 0,0 l/m 0 min 0 min 0,8 UV-I 167 W/m 17,7 km/h (3 Bft)
13.08.2014 13:10 18,9 C 18,3 C 79 % 1004,2 hPa 0,0 l/m 0 min 0 min 0,9 UV-I 172 W/m 10,7 km/h (2 Bft)
13.08.2014 13:11 18,9 C 18,3 C 79 % 1004,1 hPa 0,0 l/m 0 min 0 min 1,0 UV-I 181 W/m 7,1 km/h (2 Bft)
13.08.2014 13:12 18,9 C 18,3 C 78 % 1004,2 hPa 0,0 l/m 0 min 0 min 1,1 UV-I 204 W/m 0,0 km/h (0 Bft)
13.08.2014 13:13 18,9 C 18,3 C 78 % 1004,1 hPa 0,0 l/m 0 min 0 min 1,2 UV-I 232 W/m 0,0 km/h (0 Bft)
13.08.2014 13:14 18,9 C 18,3 C 80 % 1004,1 hPa 0,0 l/m 0 min 0 min 1,4 UV-I 250 W/m 0,0 km/h (0 Bft)
13.08.2014 13:15 19,0 C 18,3 C 80 % 1004,2 hPa 0,0 l/m 0 min 0 min 1,6 UV-I 278 W/m 0,0 km/h (0 Bft)
13.08.2014 13:16 19,0 C 18,3 C 80 % 1004,2 hPa 0,0 l/m 0 min 0 min 1,7 UV-I 294 W/m 0,0 km/h (0 Bft)
13.08.2014 13:17 19,1 C 18,9 C 80 % 1004,1 hPa 0,0 l/m 0 min 0 min 1,9 UV-I 323 W/m 3,5 km/h (1 Bft)
13.08.2014 13:18 19,2 C 18,9 C 80 % 1004,2 hPa 0,0 l/m 0 min 0 min 2,0 UV-I 340 W/m 0,0 km/h (0 Bft)
13.08.2014 13:19 19,2 C 18,9 C 79 % 1004,2 hPa 0,0 l/m 0 min 0 min 2,0 UV-I 343 W/m 14,2 km/h (3 Bft)
13.08.2014 13:20 19,2 C 18,9 C 78 % 1004,2 hPa 0,0 l/m 0 min 0 min 2,0 UV-I 346 W/m 14,2 km/h (3 Bft)
13.08.2014 13:21 19,2 C 18,9 C 77 % 1004,2 hPa 0,0 l/m 0 min 0 min 2,1 UV-I 359 W/m 0,0 km/h (0 Bft)
13.08.2014 13:22 19,2 C 18,9 C 77 % 1004,2 hPa 0,0 l/m 0 min 0 min 2,2 UV-I 385 W/m 0,0 km/h (0 Bft)
13.08.2014 13:23 19,2 C 18,9 C 76 % 1004,1 hPa 0,0 l/m 0 min 0 min 2,2 UV-I 373 W/m 0,0 km/h (0 Bft)
13.08.2014 13:24 19,2 C 18,9 C 76 % 1004,1 hPa 0,0 l/m 0 min 0 min 2,2 UV-I 374 W/m 0,0 km/h (0 Bft)
13.08.2014 13:25 19,2 C 18,9 C 75 % 1004,1 hPa 0,0 l/m 0 min 0 min 2,2 UV-I 369 W/m 0,0 km/h (0 Bft)
13.08.2014 13:26 19,2 C 18,9 C 75 % 1004,1 hPa 0,0 l/m 0 min 0 min 2,2 UV-I 367 W/m 0,0 km/h (0 Bft)
13.08.2014 13:27 19,2 C 18,9 C 76 % 1004,1 hPa 0,0 l/m 0 min 0 min 2,3 UV-I 367 W/m 17,7 km/h (3 Bft)
13.08.2014 13:28 19,2 C 18,9 C 75 % 1004,1 hPa 0,0 l/m 0 min 0 min 2,2 UV-I 373 W/m 10,7 km/h (2 Bft)
13.08.2014 13:29 19,2 C 18,9 C 75 % 1004,1 hPa 0,0 l/m 0 min 0 min 2,0 UV-I 341 W/m 0,0 km/h (0 Bft)
13.08.2014 13:30 19,2 C 18,9 C 75 % 1004,2 hPa 0,0 l/m 0 min 0 min 2,0 UV-I 305 W/m 17,7 km/h (3 Bft)
13.08.2014 13:31 19,2 C 18,9 C 75 % 1004,1 hPa 0,0 l/m 0 min 0 min 1,5 UV-I 272 W/m 14,2 km/h (3 Bft)
13.08.2014 13:32 19,2 C 18,9 C 75 % 1004,1 hPa 0,0 l/m 0 min 0 min 1,4 UV-I 258 W/m 14,2 km/h (3 Bft)
13.08.2014 13:33 19,2 C 18,9 C 74 % 1004,2 hPa 0,0 l/m 0 min 0 min 1,3 UV-I 251 W/m 14,2 km/h (3 Bft)
13.08.2014 13:36 19,2 C 18,9 C 76 % 1004,1 hPa 0,0 l/m 0 min 0 min 1,3 UV-I 253 W/m 14,2 km/h (3 Bft)
13.08.2014 13:38 19,2 C 18,9 C 76 % 1004,1 hPa 0,0 l/m 0 min 0 min 1,3 UV-I 264 W/m 3,5 km/h (1 Bft)
13.08.2014 13:40 19,3 C 18,9 C 75 % 1004,1 hPa 0,0 l/m 0 min 0 min 1,4 UV-I 276 W/m 0,0 km/h (0 Bft)
13.08.2014 13:42 19,3 C 18,9 C 75 % 1004,1 hPa 0,0 l/m 0 min 0 min 1,5 UV-I 291 W/m 14,2 km/h (3 Bft)
13.08.2014 13:44 19,2 C 18,9 C 75 % 1004,1 hPa 0,0 l/m 0 min 0 min 1,6 UV-I 297 W/m 0,0 km/h (0 Bft)
13.08.2014 13:46 19,2 C 19,4 C 76 % 1004,1 hPa 0,0 l/m 0 min 0 min 1,7 UV-I 300 W/m 0,0 km/h (0 Bft)
13.08.2014 13:48 19,3 C 19,4 C 76 % 1004,2 hPa 0,0 l/m 0 min 0 min 1,7 UV-I 303 W/m 0,0 km/h (0 Bft)
13.08.2014 13:50 19,4 C 19,4 C 76 % 1004,2 hPa 0,0 l/m 0 min 0 min 1,8 UV-I 322 W/m 3,5 km/h (1 Bft)
13.08.2014 13:52 19,4 C 19,4 C 75 % 1004,2 hPa 0,0 l/m 0 min 0 min 1,9 UV-I 334 W/m 0,0 km/h (0 Bft)
13.08.2014 13:54 19,5 C 19,4 C 75 % 1004,2 hPa 0,0 l/m 0 min 0 min 2,0 UV-I 355 W/m 0,0 km/h (0 Bft)
13.08.2014 13:56 19,6 C 19,4 C 74 % 1004,2 hPa 0,0 l/m 0 min 0 min 1,7 UV-I 310 W/m 14,2 km/h (3 Bft)
13.08.2014 13:58 19,6 C 19,4 C 73 % 1004,2 hPa 0,0 l/m 0 min 0 min 1,6 UV-I 292 W/m 21,3 km/h (4 Bft)
13.08.2014 14:00 19,6 C 19,4 C 73 % 1004,2 hPa 0,0 l/m 0 min 0 min 1,6 UV-I 286 W/m 3,5 km/h (1 Bft)
13.08.2014 14:02 19,6 C 19,4 C 76 % 1004,2 hPa 0,0 l/m 0 min 0 min 1,6 UV-I 282 W/m 3,5 km/h (1 Bft)
13.08.2014 14:04 19,7 C 19,4 C 75 % 1004,2 hPa 0,0 l/m 0 min 0 min 1,5 UV-I 283 W/m 0,0 km/h (0 Bft)
13.08.2014 14:06 19,7 C 19,4 C 75 % 1004,2 hPa 0,0 l/m 0 min 0 min 1,5 UV-I 286 W/m 0,0 km/h (0 Bft)
13.08.2014 14:08 19,7 C 19,4 C 73 % 1004,2 hPa 0,0 l/m 0 min 0 min 1,5 UV-I 281 W/m 10,7 km/h (2 Bft)
13.08.2014 14:10 19,7 C 19,4 C 73 % 1004,1 hPa 0,0 l/m 0 min 0 min 1,4 UV-I 271 W/m 14,2 km/h (3 Bft)
13.08.2014 14:12 19,6 C 19,4 C 74 % 1004,2 hPa 0,0 l/m 0 min 0 min 1,4 UV-I 259 W/m 14,2 km/h (3 Bft)
13.08.2014 14:14 19,6 C 19,4 C 72 % 1004,2 hPa 0,0 l/m 0 min 0 min 1,3 UV-I 256 W/m 21,3 km/h (4 Bft)
13.08.2014 14:16 19,5 C 18,9 C 73 % 1004,1 hPa 0,0 l/m 0 min 0 min 1,4 UV-I 260 W/m 14,2 km/h (3 Bft)
13.08.2014 14:18 19,5 C 18,9 C 73 % 1004,1 hPa 0,0 l/m 0 min 0 min 1,4 UV-I 268 W/m 14,2 km/h (3 Bft)
13.08.2014 14:20 19,4 C 18,9 C 73 % 1004,2 hPa 0,0 l/m 0 min 0 min 1,4 UV-I 272 W/m 14,2 km/h (3 Bft)
13.08.2014 14:22 19,4 C 18,9 C 73 % 1004,2 hPa 0,0 l/m 0 min 0 min 1,4 UV-I 274 W/m 14,2 km/h (3 Bft)
13.08.2014 14:24 19,4 C 19,4 C 74 % 1004,2 hPa 0,0 l/m 0 min 0 min 1,4 UV-I 270 W/m 14,2 km/h (3 Bft)
13.08.2014 14:26 19,4 C 19,4 C 74 % 1004,3 hPa 0,0 l/m 0 min 0 min 1,3 UV-I 265 W/m 17,7 km/h (3 Bft)
13.08.2014 14:28 19,4 C 19,4 C 74 % 1004,2 hPa 0,0 l/m 0 min 0 min 1,3 UV-I 258 W/m 17,7 km/h (3 Bft)
13.08.2014 14:30 19,5 C 19,4 C 74 % 1004,2 hPa 0,0 l/m 0 min 0 min 1,3 UV-I 253 W/m 17,7 km/h (3 Bft)
13.08.2014 14:32 19,4 C 19,4 C 74 % 1004,2 hPa 0,0 l/m 0 min 0 min 1,3 UV-I 256 W/m 14,2 km/h (3 Bft)
13.08.2014 14:34 19,6 C 19,4 C 75 % 1004,2 hPa 0,0 l/m 0 min 0 min 1,3 UV-I 257 W/m 14,2 km/h (3 Bft)
13.08.2014 14:36 19,7 C 19,4 C 77 % 1004,2 hPa 0,0 l/m 0 min 0 min 1,3 UV-I 255 W/m 14,2 km/h (3 Bft)
13.08.2014 14:38 19,7 C 19,4 C 74 % 1004,2 hPa 0,0 l/m 0 min 0 min 1,3 UV-I 250 W/m 17,7 km/h (3 Bft)
13.08.2014 14:40 19,6 C 19,4 C 72 % 1004,2 hPa 0,0 l/m 0 min 0 min 1,2 UV-I 249 W/m 14,2 km/h (3 Bft)
13.08.2014 14:42 19,5 C 18,9 C 73 % 1004,2 hPa 0,0 l/m 0 min 0 min 1,2 UV-I 248 W/m 14,2 km/h (3 Bft)
13.08.2014 14:44 19,5 C 18,9 C 75 % 1004,1 hPa 0,0 l/m 0 min 0 min 1,2 UV-I 244 W/m 17,7 km/h (3 Bft)
13.08.2014 14:46 19,6 C 19,4 C 76 % 1004,2 hPa 0,0 l/m 0 min 0 min 1,2 UV-I 242 W/m 21,3 km/h (4 Bft)
13.08.2014 14:48 19,6 C 19,4 C 75 % 1004,2 hPa 0,0 l/m 0 min 0 min 1,2 UV-I 241 W/m 0,0 km/h (0 Bft)
13.08.2014 14:50 19,6 C 19,4 C 73 % 1004,2 hPa 0,0 l/m 0 min 0 min 1,2 UV-I 241 W/m 0,0 km/h (0 Bft)
13.08.2014 14:52 19,7 C 19,4 C 72 % 1004,2 hPa 0,0 l/m 0 min 0 min 1,2 UV-I 243 W/m 0,0 km/h (0 Bft)
13.08.2014 14:54 19,6 C 19,4 C 72 % 1004,2 hPa 0,0 l/m 0 min 0 min 1,2 UV-I 246 W/m 10,7 km/h (2 Bft)
13.08.2014 14:56 19,6 C 19,4 C 74 % 1004,2 hPa 0,0 l/m 0 min 0 min 1,2 UV-I 250 W/m 10,7 km/h (2 Bft)
13.08.2014 14:58 19,7 C 19,4 C 76 % 1004,2 hPa 0,0 l/m 0 min 0 min 1,2 UV-I 250 W/m 0,0 km/h (0 Bft)
13.08.2014 15:00 19,7 C 19,4 C 73 % 1004,2 hPa 0,0 l/m 0 min 0 min 1,2 UV-I 250 W/m 10,7 km/h (2 Bft)
13.08.2014 15:02 19,7 C 19,4 C 73 % 1004,2 hPa 0,0 l/m 0 min 0 min 1,2 UV-I 251 W/m 17,7 km/h (3 Bft)
13.08.2014 15:04 19,7 C 19,4 C 72 % 1004,2 hPa 0,0 l/m 0 min 0 min 1,2 UV-I 250 W/m 17,7 km/h (3 Bft)
13.08.2014 15:06 19,6 C 19,4 C 72 % 1004,2 hPa 0,0 l/m 0 min 0 min 1,1 UV-I 242 W/m 17,7 km/h (3 Bft)
13.08.2014 15:08 19,7 C 19,4 C 74 % 1004,2 hPa 0,0 l/m 0 min 0 min 1,1 UV-I 231 W/m 3,5 km/h (1 Bft)
13.08.2014 15:10 19,8 C 19,4 C 75 % 1004,2 hPa 0,0 l/m 0 min 0 min 1,0 UV-I 223 W/m 14,2 km/h (3 Bft)
13.08.2014 15:12 19,8 C 19,4 C 73 % 1004,2 hPa 0,0 l/m 0 min 0 min 1,0 UV-I 217 W/m 14,2 km/h (3 Bft)
13.08.2014 15:14 19,7 C 19,4 C 73 % 1004,2 hPa 0,0 l/m 0 min 0 min 1,0 UV-I 217 W/m 10,7 km/h (2 Bft)
13.08.2014 15:16 19,7 C 19,4 C 71 % 1004,2 hPa 0,0 l/m 0 min 0 min 1,0 UV-I 225 W/m 10,7 km/h (2 Bft)
13.08.2014 15:18 19,7 C 19,4 C 72 % 1004,2 hPa 0,0 l/m 0 min 0 min 1,1 UV-I 244 W/m 10,7 km/h (2 Bft)
13.08.2014 15:20 19,7 C 19,4 C 72 % 1004,2 hPa 0,0 l/m 0 min 0 min 1,2 UV-I 263 W/m 10,7 km/h (2 Bft)
13.08.2014 15:22 19,7 C 19,4 C 75 % 1004,1 hPa 0,0 l/m 0 min 0 min 1,3 UV-I 274 W/m 0,0 km/h (0 Bft)
13.08.2014 15:24 19,7 C 19,4 C 72 % 1004,1 hPa 0,0 l/m 0 min 0 min 1,3 UV-I 278 W/m 0,0 km/h (0 Bft)
13.08.2014 15:26 19,7 C 19,4 C 72 % 1004,1 hPa 0,0 l/m 0 min 0 min 1,3 UV-I 275 W/m 10,7 km/h (2 Bft)
13.08.2014 15:28 19,7 C 19,4 C 72 % 1004,1 hPa 0,0 l/m 0 min 0 min 1,3 UV-I 272 W/m 3,5 km/h (1 Bft)
13.08.2014 15:30 19,7 C 19,4 C 71 % 1004,1 hPa 0,0 l/m 0 min 0 min 1,2 UV-I 267 W/m 14,2 km/h (3 Bft)
13.08.2014 15:32 19,7 C 19,4 C 72 % 1004,2 hPa 0,0 l/m 0 min 0 min 1,2 UV-I 259 W/m 17,7 km/h (3 Bft)
13.08.2014 15:34 19,8 C 19,4 C 73 % 1004,2 hPa 0,0 l/m 0 min 0 min 1,2 UV-I 256 W/m 21,3 km/h (4 Bft)
13.08.2014 15:36 19,8 C 19,4 C 72 % 1004,2 hPa 0,0 l/m 0 min 0 min 1,1 UV-I 254 W/m 10,7 km/h (2 Bft)
13.08.2014 15:38 19,8 C 19,4 C 73 % 1004,2 hPa 0,0 l/m 0 min 0 min 1,1 UV-I 251 W/m 14,2 km/h (3 Bft)
13.08.2014 15:40 19,9 C 19,4 C 74 % 1004,1 hPa 0,0 l/m 0 min 0 min 1,1 UV-I 250 W/m 17,7 km/h (3 Bft)
13.08.2014 15:42 20,0 C 19,4 C 74 % 1004,1 hPa 0,0 l/m 0 min 0 min 1,1 UV-I 246 W/m 17,7 km/h (3 Bft)
13.08.2014 15:44 19,9 C 19,4 C 73 % 1004,1 hPa 0,0 l/m 0 min 0 min 1,1 UV-I 241 W/m 14,2 km/h (3 Bft)
13.08.2014 15:46 19,9 C 19,4 C 73 % 1004,2 hPa 0,0 l/m 0 min 0 min 1,0 UV-I 237 W/m 10,7 km/h (2 Bft)
13.08.2014 15:48 19,8 C 19,4 C 73 % 1004,2 hPa 0,0 l/m 0 min 0 min 1,0 UV-I 236 W/m 14,2 km/h (3 Bft)
13.08.2014 15:50 19,8 C 19,4 C 73 % 1004,2 hPa 0,0 l/m 0 min 0 min 0,9 UV-I 228 W/m 17,7 km/h (3 Bft)
13.08.2014 15:52 19,8 C 19,4 C 72 % 1004,2 hPa 0,0 l/m 0 min 0 min 0,8 UV-I 219 W/m 14,2 km/h (3 Bft)
13.08.2014 15:54 19,8 C 19,4 C 74 % 1004,1 hPa 0,0 l/m 0 min 0 min 0,8 UV-I 216 W/m 14,2 km/h (3 Bft)
13.08.2014 15:56 19,8 C 19,4 C 74 % 1004,2 hPa 0,0 l/m 0 min 0 min 0,8 UV-I 219 W/m 10,7 km/h (2 Bft)
13.08.2014 15:58 19,8 C 19,4 C 74 % 1004,1 hPa 0,0 l/m 0 min 0 min 0,9 UV-I 231 W/m 17,7 km/h (3 Bft)
13.08.2014 16:00 19,9 C 19,4 C 74 % 1004,1 hPa 0,0 l/m 0 min 0 min 1,0 UV-I 243 W/m 10,7 km/h (2 Bft)
13.08.2014 16:02 19,9 C 19,4 C 76 % 1004,2 hPa 0,0 l/m 0 min 0 min 1,0 UV-I 255 W/m 0,0 km/h (0 Bft)
13.08.2014 16:04 20,0 C 19,4 C 75 % 1004,1 hPa 0,0 l/m 0 min 0 min 1,1 UV-I 262 W/m 3,5 km/h (1 Bft)
13.08.2014 16:06 20,1 C 20,0 C 75 % 1004,2 hPa 0,0 l/m 0 min 0 min 1,1 UV-I 264 W/m 0,0 km/h (0 Bft)
13.08.2014 16:08 20,1 C 20,0 C 73 % 1004,3 hPa 0,0 l/m 0 min 0 min 1,1 UV-I 264 W/m 3,5 km/h (1 Bft)
13.08.2014 16:10 20,2 C 20,0 C 74 % 1004,2 hPa 0,0 l/m 0 min 0 min 1,0 UV-I 266 W/m 10,7 km/h (2 Bft)
13.08.2014 16:12 20,2 C 20,0 C 73 % 1004,2 hPa 0,0 l/m 0 min 0 min 1,0 UV-I 266 W/m 0,0 km/h (0 Bft)
13.08.2014 16:14 20,3 C 20,0 C 74 % 1004,2 hPa 0,0 l/m 0 min 0 min 1,0 UV-I 266 W/m 0,0 km/h (0 Bft)
13.08.2014 16:16 20,3 C 20,0 C 73 % 1004,2 hPa 0,0 l/m 0 min 0 min 1,0 UV-I 271 W/m 0,0 km/h (0 Bft)
13.08.2014 16:18 20,2 C 20,0 C 70 % 1004,2 hPa 0,0 l/m 0 min 0 min 1,1 UV-I 280 W/m 0,0 km/h (0 Bft)
13.08.2014 16:20 20,2 C 20,0 C 72 % 1004,2 hPa 0,0 l/m 0 min 0 min 1,1 UV-I 313 W/m 0,0 km/h (0 Bft)
13.08.2014 16:22 20,1 C 20,0 C 72 % 1004,3 hPa 0,0 l/m 0 min 0 min 1,1 UV-I 286 W/m 14,2 km/h (3 Bft)
13.08.2014 16:24 20,3 C 20,0 C 72 % 1004,2 hPa 0,0 l/m 0 min 0 min 1,1 UV-I 280 W/m 0,0 km/h (0 Bft)
13.08.2014 16:26 20,2 C 20,0 C 71 % 1004,2 hPa 0,0 l/m 0 min 0 min 1,0 UV-I 273 W/m 0,0 km/h (0 Bft)
13.08.2014 16:28 20,3 C 20,0 C 73 % 1004,2 hPa 0,0 l/m 0 min 0 min 1,0 UV-I 272 W/m 14,2 km/h (3 Bft)
13.08.2014 16:30 20,2 C 20,0 C 70 % 1004,2 hPa 0,0 l/m 0 min 0 min 1,0 UV-I 274 W/m 14,2 km/h (3 Bft)
13.08.2014 16:32 20,2 C 20,0 C 71 % 1004,2 hPa 0,0 l/m 0 min 0 min 1,0 UV-I 272 W/m 21,3 km/h (4 Bft)
13.08.2014 16:34 20,2 C 20,0 C 71 % 1004,2 hPa 0,0 l/m 0 min 0 min 1,0 UV-I 271 W/m 21,3 km/h (4 Bft)
13.08.2014 16:36 20,2 C 20,0 C 71 % 1004,2 hPa 0,0 l/m 0 min 0 min 0,9 UV-I 271 W/m 14,2 km/h (3 Bft)
13.08.2014 16:38 20,2 C 20,0 C 71 % 1004,2 hPa 0,0 l/m 0 min 0 min 0,9 UV-I 272 W/m 14,2 km/h (3 Bft)
13.08.2014 16:40 20,2 C 20,0 C 72 % 1004,2 hPa 0,0 l/m 0 min 0 min 0,9 UV-I 272 W/m 17,7 km/h (3 Bft)
13.08.2014 16:42 20,2 C 20,0 C 71 % 1004,2 hPa 0,0 l/m 0 min 0 min 0,9 UV-I 272 W/m 10,7 km/h (2 Bft)
13.08.2014 16:44 20,2 C 20,0 C 71 % 1004,2 hPa 0,0 l/m 0 min 0 min 0,9 UV-I 272 W/m 17,7 km/h (3 Bft)
13.08.2014 16:46 20,3 C 20,0 C 71 % 1004,2 hPa 0,0 l/m 0 min 0 min 0,9 UV-I 277 W/m 17,7 km/h (3 Bft)
13.08.2014 16:48 20,3 C 20,0 C 71 % 1004,2 hPa 0,0 l/m 0 min 0 min 0,9 UV-I 278 W/m 17,7 km/h (3 Bft)
13.08.2014 16:50 20,3 C 20,0 C 69 % 1004,2 hPa 0,0 l/m 0 min 0 min 0,9 UV-I 278 W/m 24,7 km/h (4 Bft)
13.08.2014 16:52 20,3 C 20,0 C 71 % 1004,2 hPa 0,0 l/m 0 min 0 min 0,9 UV-I 278 W/m 14,2 km/h (3 Bft)
13.08.2014 16:54 20,3 C 20,0 C 70 % 1004,2 hPa 0,0 l/m 0 min 0 min 0,9 UV-I 277 W/m 21,3 km/h (4 Bft)
13.08.2014 16:56 20,4 C 20,0 C 70 % 1004,2 hPa 0,0 l/m 0 min 0 min 0,9 UV-I 274 W/m 17,7 km/h (3 Bft)
13.08.2014 16:58 20,4 C 20,0 C 73 % 1004,2 hPa 0,0 l/m 0 min 0 min 0,8 UV-I 272 W/m 24,7 km/h (4 Bft)
13.08.2014 17:00 20,3 C 20,0 C 70 % 1004,2 hPa 0,0 l/m 0 min 0 min 0,8 UV-I 275 W/m 17,7 km/h (3 Bft)
13.08.2014 17:02 20,3 C 20,0 C 72 % 1004,2 hPa 0,0 l/m 0 min 0 min 0,8 UV-I 280 W/m 17,7 km/h (3 Bft)
13.08.2014 17:04 20,3 C 20,0 C 72 % 1004,2 hPa 0,0 l/m 2 min 0 min 0,8 UV-I 283 W/m 14,2 km/h (3 Bft)
13.08.2014 17:06 20,3 C 20,0 C 72 % 1004,2 hPa 0,0 l/m 2 min 0 min 0,8 UV-I 280 W/m 17,7 km/h (3 Bft)
13.08.2014 17:08 20,4 C 20,0 C 73 % 1004,2 hPa 0,0 l/m 0 min 0 min 0,8 UV-I 272 W/m 17,7 km/h (3 Bft)
13.08.2014 17:10 20,3 C 20,0 C 70 % 1004,2 hPa 0,0 l/m 0 min 0 min 0,8 UV-I 265 W/m 24,7 km/h (4 Bft)
13.08.2014 17:12 20,3 C 20,0 C 69 % 1004,3 hPa 0,0 l/m 0 min 0 min 0,8 UV-I 266 W/m 28,2 km/h (4 Bft)
13.08.2014 17:14 20,2 C 19,4 C 70 % 1004,2 hPa 0,0 l/m 2 min 0 min 0,8 UV-I 275 W/m 24,7 km/h (4 Bft)
13.08.2014 17:16 20,2 C 19,4 C 69 % 1004,3 hPa 0,0 l/m 2 min 0 min 0,8 UV-I 286 W/m 21,3 km/h (4 Bft)
13.08.2014 17:18 20,2 C 19,4 C 69 % 1004,3 hPa 0,0 l/m 2 min 0 min 0,8 UV-I 298 W/m 24,7 km/h (4 Bft)
13.08.2014 17:20 20,2 C 20,0 C 69 % 1004,3 hPa 0,0 l/m 2 min 0 min 0,8 UV-I 311 W/m 24,7 km/h (4 Bft)
13.08.2014 17:22 20,3 C 20,0 C 71 % 1004,3 hPa 0,0 l/m 2 min 0 min 0,9 UV-I 351 W/m 17,7 km/h (3 Bft)
13.08.2014 17:24 20,4 C 20,0 C 69 % 1004,3 hPa 0,0 l/m 2 min 0 min 0,9 UV-I 361 W/m 28,2 km/h (4 Bft)
13.08.2014 17:26 20,5 C 20,0 C 70 % 1004,3 hPa 0,0 l/m 2 min 0 min 0,9 UV-I 344 W/m 24,7 km/h (4 Bft)
13.08.2014 17:28 20,6 C 20,0 C 69 % 1004,3 hPa 0,0 l/m 2 min 0 min 1,0 UV-I 417 W/m 17,7 km/h (3 Bft)
13.08.2014 17:30 20,8 C 20,0 C 67 % 1004,2 hPa 0,0 l/m 2 min 0 min 1,1 UV-I 513 W/m 14,2 km/h (3 Bft)
13.08.2014 17:32 21,0 C 20,0 C 69 % 1004,2 hPa 0,0 l/m 2 min 0 min 1,1 UV-I 589 W/m 14,2 km/h (3 Bft)
13.08.2014 17:34 21,2 C 20,0 C 67 % 1004,2 hPa 0,0 l/m 2 min 0 min 1,0 UV-I 549 W/m 10,7 km/h (2 Bft)
13.08.2014 17:36 21,3 C 20,6 C 69 % 1004,2 hPa 0,0 l/m 2 min 0 min 0,8 UV-I 486 W/m 14,2 km/h (3 Bft)
13.08.2014 17:38 21,3 C 20,0 C 68 % 1004,2 hPa 0,0 l/m 2 min 0 min 0,7 UV-I 456 W/m 31,7 km/h (5 Bft)
13.08.2014 17:40 21,3 C 20,0 C 68 % 1004,3 hPa 0,0 l/m 2 min 0 min 0,6 UV-I 397 W/m 28,2 km/h (4 Bft)
13.08.2014 17:42 21,2 C 20,0 C 68 % 1004,2 hPa 0,0 l/m 2 min 0 min 0,6 UV-I 295 W/m 24,7 km/h (4 Bft)
13.08.2014 17:44 21,1 C 19,4 C 69 % 1004,3 hPa 0,0 l/m 2 min 0 min 0,5 UV-I 313 W/m 17,7 km/h (3 Bft)
13.08.2014 17:46 20,9 C 19,4 C 69 % 1004,2 hPa 0,0 l/m 0 min 0 min 0,5 UV-I 180 W/m 17,7 km/h (3 Bft)
13.08.2014 17:48 20,8 C 19,4 C 68 % 1004,2 hPa 0,0 l/m 2 min 0 min 0,5 UV-I 311 W/m 14,2 km/h (3 Bft)
13.08.2014 17:50 20,8 C 19,4 C 67 % 1004,2 hPa 0,0 l/m 2 min 0 min 0,5 UV-I 460 W/m 17,7 km/h (3 Bft)
13.08.2014 17:52 20,9 C 19,4 C 68 % 1004,2 hPa 0,0 l/m 2 min 0 min 0,5 UV-I 457 W/m 17,7 km/h (3 Bft)
13.08.2014 17:54 21,0 C 19,4 C 69 % 1004,2 hPa 0,0 l/m 0 min 0 min 0,5 UV-I 202 W/m 17,7 km/h (3 Bft)
13.08.2014 17:56 21,0 C 19,4 C 69 % 1004,2 hPa 0,0 l/m 0 min 0 min 0,2 UV-I 185 W/m 17,7 km/h (3 Bft)
13.08.2014 17:58 20,9 C 19,4 C 70 % 1004,2 hPa 0,0 l/m 2 min 0 min 0,0 UV-I 222 W/m 24,7 km/h (4 Bft)
13.08.2014 18:00 20,8 C 19,4 C 69 % 1004,3 hPa 0,0 l/m 2 min 0 min 0,0 UV-I 333 W/m 14,2 km/h (3 Bft)
13.08.2014 18:02 20,8 C 19,4 C 68 % 1004,3 hPa 0,0 l/m 2 min 0 min 0,0 UV-I 403 W/m 3,5 km/h (1 Bft)
13.08.2014 18:06 20,7 C 19,4 C 69 % 1004,3 hPa 0,0 l/m 2 min 0 min 0,0 UV-I 267 W/m 24,7 km/h (4 Bft)
13.08.2014 18:08 20,7 C 19,4 C 69 % 1004,3 hPa 0,0 l/m 0 min 0 min 0,0 UV-I 150 W/m 24,7 km/h (4 Bft)
13.08.2014 18:10 20,6 C 18,9 C 67 % 1004,3 hPa 0,0 l/m 0 min 0 min 0,0 UV-I 130 W/m 31,7 km/h (5 Bft)
13.08.2014 18:12 20,4 C 18,9 C 67 % 1004,3 hPa 0,0 l/m 0 min 0 min 0,0 UV-I 126 W/m 24,7 km/h (4 Bft)
13.08.2014 18:14 20,4 C 18,9 C 67 % 1004,4 hPa 0,0 l/m 0 min 0 min 0,0 UV-I 110 W/m 21,3 km/h (4 Bft)
13.08.2014 18:16 20,3 C 18,9 C 68 % 1004,3 hPa 0,0 l/m 0 min 0 min 0,0 UV-I 112 W/m 17,7 km/h (3 Bft)
13.08.2014 18:18 20,3 C 18,9 C 68 % 1004,3 hPa 0,0 l/m 0 min 0 min 0,0 UV-I 152 W/m 24,7 km/h (4 Bft)
13.08.2014 18:20 20,3 C 18,9 C 69 % 1004,3 hPa 0,0 l/m 0 min 0 min 0,0 UV-I 146 W/m 21,3 km/h (4 Bft)
13.08.2014 18:22 20,3 C 18,9 C 68 % 1004,4 hPa 0,0 l/m 0 min 0 min 0,0 UV-I 127 W/m 28,2 km/h (4 Bft)
13.08.2014 18:24 20,3 C 18,9 C 69 % 1004,4 hPa 0,0 l/m 0 min 0 min 0,0 UV-I 132 W/m 24,7 km/h (4 Bft)
13.08.2014 18:26 20,3 C 18,9 C 69 % 1004,4 hPa 0,0 l/m 0 min 0 min 0,0 UV-I 148 W/m 31,7 km/h (5 Bft)
13.08.2014 18:28 20,3 C 18,9 C 70 % 1004,5 hPa 0,0 l/m 2 min 0 min 0,0 UV-I 243 W/m 28,2 km/h (4 Bft)
13.08.2014 18:30 20,4 C 18,9 C 69 % 1004,4 hPa 0,0 l/m 2 min 0 min 0,0 UV-I 373 W/m 31,7 km/h (5 Bft)
13.08.2014 18:32 20,4 C 18,9 C 68 % 1004,4 hPa 0,0 l/m 2 min 0 min 0,0 UV-I 229 W/m 31,7 km/h (5 Bft)
13.08.2014 18:34 20,4 C 18,9 C 69 % 1004,4 hPa 0,0 l/m 2 min 0 min 0,0 UV-I 212 W/m 21,3 km/h (4 Bft)
13.08.2014 18:36 20,4 C 18,9 C 68 % 1004,4 hPa 0,0 l/m 0 min 0 min 0,0 UV-I 172 W/m 21,3 km/h (4 Bft)
13.08.2014 18:38 20,4 C 18,9 C 70 % 1004,4 hPa 0,0 l/m 2 min 0 min 0,0 UV-I 225 W/m 10,7 km/h (2 Bft)
13.08.2014 18:40 20,6 C 18,3 C 69 % 1004,3 hPa 0,0 l/m 2 min 0 min 0,0 UV-I 310 W/m 24,7 km/h (4 Bft)
13.08.2014 18:42 20,6 C 18,3 C 68 % 1004,3 hPa 0,0 l/m 2 min 0 min 0,0 UV-I 295 W/m 21,3 km/h (4 Bft)
13.08.2014 18:44 20,6 C 18,3 C 67 % 1004,4 hPa 0,0 l/m 2 min 0 min 0,0 UV-I 302 W/m 28,2 km/h (4 Bft)
13.08.2014 18:46 20,7 C 18,3 C 67 % 1004,3 hPa 0,0 l/m 2 min 0 min 0,0 UV-I 290 W/m 10,7 km/h (2 Bft)
13.08.2014 18:48 20,7 C 18,3 C 68 % 1004,4 hPa 0,0 l/m 2 min 0 min 0,0 UV-I 285 W/m 17,7 km/h (3 Bft)
13.08.2014 18:50 20,8 C 18,9 C 67 % 1004,4 hPa 0,0 l/m 2 min 0 min 0,0 UV-I 272 W/m 21,3 km/h (4 Bft)
13.08.2014 18:52 20,8 C 18,9 C 67 % 1004,4 hPa 0,0 l/m 2 min 0 min 0,0 UV-I 253 W/m 24,7 km/h (4 Bft)
13.08.2014 18:54 20,8 C 18,3 C 65 % 1004,5 hPa 0,0 l/m 2 min 0 min 0,0 UV-I 238 W/m 17,7 km/h (3 Bft)
13.08.2014 18:56 20,8 C 18,3 C 68 % 1004,4 hPa 0,0 l/m 2 min 0 min 0,0 UV-I 230 W/m 24,7 km/h (4 Bft)
13.08.2014 18:58 20,8 C 18,3 C 64 % 1004,4 hPa 0,0 l/m 2 min 0 min 0,0 UV-I 220 W/m 28,2 km/h (4 Bft)
13.08.2014 19:00 20,7 C 18,3 C 64 % 1004,4 hPa 0,0 l/m 2 min 0 min 0,0 UV-I 207 W/m 21,3 km/h (4 Bft)
13.08.2014 19:02 20,7 C 18,3 C 62 % 1004,4 hPa 0,0 l/m 2 min 0 min 0,0 UV-I 197 W/m 14,2 km/h (3 Bft)
13.08.2014 19:04 20,7 C 18,3 C 62 % 1004,4 hPa 0,0 l/m 0 min 0 min 0,0 UV-I 120 W/m 14,2 km/h (3 Bft)
13.08.2014 19:06 20,6 C 18,3 C 63 % 1004,5 hPa 0,0 l/m 0 min 0 min 0,0 UV-I 88 W/m 21,3 km/h (4 Bft)
13.08.2014 19:08 20,5 C 18,3 C 63 % 1004,4 hPa 0,0 l/m 2 min 0 min 0,0 UV-I 175 W/m 28,2 km/h (4 Bft)
13.08.2014 19:10 20,4 C 17,8 C 63 % 1004,5 hPa 0,0 l/m 0 min 0 min 0,0 UV-I 127 W/m 24,7 km/h (4 Bft)
13.08.2014 19:12 20,4 C 17,8 C 63 % 1004,5 hPa 0,0 l/m 2 min 0 min 0,0 UV-I 168 W/m 21,3 km/h (4 Bft)
13.08.2014 19:14 20,3 C 17,8 C 64 % 1004,5 hPa 0,0 l/m 2 min 0 min 0,0 UV-I 163 W/m 21,3 km/h (4 Bft)
13.08.2014 19:16 20,3 C 17,8 C 64 % 1004,4 hPa 0,0 l/m 2 min 0 min 0,0 UV-I 159 W/m 31,7 km/h (5 Bft)
13.08.2014 19:18 20,2 C 17,8 C 63 % 1004,5 hPa 0,0 l/m 0 min 0 min 0,0 UV-I 103 W/m 14,2 km/h (3 Bft)
13.08.2014 19:20 20,2 C 17,8 C 64 % 1004,5 hPa 0,0 l/m 2 min 0 min 0,0 UV-I 129 W/m 21,3 km/h (4 Bft)
13.08.2014 19:22 20,2 C 17,8 C 64 % 1004,5 hPa 0,0 l/m 2 min 0 min 0,0 UV-I 134 W/m 31,7 km/h (5 Bft)
13.08.2014 19:24 20,1 C 17,8 C 64 % 1004,5 hPa 0,0 l/m 2 min 0 min 0,0 UV-I 124 W/m 24,7 km/h (4 Bft)
13.08.2014 19:26 20,1 C 17,8 C 65 % 1004,6 hPa 0,0 l/m 2 min 0 min 0,0 UV-I 121 W/m 28,2 km/h (4 Bft)
13.08.2014 19:28 20,1 C 17,8 C 64 % 1004,6 hPa 0,0 l/m 0 min 0 min 0,0 UV-I 97 W/m 24,7 km/h (4 Bft)
13.08.2014 19:30 20,0 C 17,8 C 65 % 1004,6 hPa 0,0 l/m 2 min 0 min 0,0 UV-I 108 W/m 17,7 km/h (3 Bft)
13.08.2014 19:32 20,0 C 17,8 C 67 % 1004,6 hPa 0,0 l/m 2 min 0 min 0,0 UV-I 110 W/m 17,7 km/h (3 Bft)
13.08.2014 19:34 19,9 C 17,8 C 65 % 1004,6 hPa 0,0 l/m 0 min 0 min 0,0 UV-I 69 W/m 31,7 km/h (5 Bft)
13.08.2014 19:36 19,9 C 17,2 C 66 % 1004,6 hPa 0,0 l/m 0 min 0 min 0,0 UV-I 69 W/m 10,7 km/h (2 Bft)
13.08.2014 19:38 19,9 C 17,2 C 66 % 1004,6 hPa 0,0 l/m 0 min 0 min 0,0 UV-I 70 W/m 21,3 km/h (4 Bft)
13.08.2014 19:40 19,8 C 17,2 C 66 % 1004,6 hPa 0,0 l/m 0 min 0 min 0,0 UV-I 54 W/m 21,3 km/h (4 Bft)
13.08.2014 19:42 19,8 C 17,2 C 65 % 1004,7 hPa 0,0 l/m 0 min 0 min 0,0 UV-I 48 W/m 21,3 km/h (4 Bft)
13.08.2014 19:44 19,7 C 17,2 C 65 % 1004,7 hPa 0,0 l/m 0 min 0 min 0,0 UV-I 47 W/m 31,7 km/h (5 Bft)
13.08.2014 19:46 19,7 C 17,2 C 65 % 1004,7 hPa 0,0 l/m 0 min 0 min 0,0 UV-I 52 W/m 24,7 km/h (4 Bft)
13.08.2014 19:48 19,7 C 17,2 C 66 % 1004,7 hPa 0,0 l/m 0 min 0 min 0,0 UV-I 65 W/m 24,7 km/h (4 Bft)
13.08.2014 19:50 19,6 C 17,2 C 65 % 1004,7 hPa 0,0 l/m 0 min 0 min 0,0 UV-I 66 W/m 28,2 km/h (4 Bft)
13.08.2014 19:52 19,6 C 17,2 C 66 % 1004,7 hPa 0,0 l/m 0 min 0 min 0,0 UV-I 62 W/m 21,3 km/h (4 Bft)
13.08.2014 19:54 19,5 C 17,2 C 66 % 1004,7 hPa 0,0 l/m 0 min 0 min 0,0 UV-I 52 W/m 21,3 km/h (4 Bft)
13.08.2014 19:56 19,4 C 17,2 C 68 % 1004,8 hPa 0,0 l/m 0 min 0 min 0,0 UV-I 50 W/m 17,7 km/h (3 Bft)
13.08.2014 19:58 19,3 C 17,2 C 67 % 1004,7 hPa 0,0 l/m 0 min 0 min 0,0 UV-I 48 W/m 21,3 km/h (4 Bft)
13.08.2014 20:00 19,3 C 16,7 C 69 % 1004,8 hPa 0,0 l/m 0 min 0 min 0,0 UV-I 36 W/m 10,7 km/h (2 Bft)
13.08.2014 20:02 19,1 C 16,7 C 69 % 1004,8 hPa 0,0 l/m 0 min 0 min 0,0 UV-I 34 W/m 21,3 km/h (4 Bft)
13.08.2014 20:04 19,0 C 16,7 C 69 % 1004,8 hPa 0,0 l/m 0 min 0 min 0,0 UV-I 32 W/m 28,2 km/h (4 Bft)
13.08.2014 20:06 18,9 C 16,7 C 69 % 1004,9 hPa 0,0 l/m 0 min 0 min 0,0 UV-I 32 W/m 21,3 km/h (4 Bft)
13.08.2014 20:08 18,9 C 16,7 C 69 % 1004,9 hPa 0,0 l/m 0 min 0 min 0,0 UV-I 31 W/m 24,7 km/h (4 Bft)
13.08.2014 20:10 18,8 C 16,7 C 69 % 1004,9 hPa 0,0 l/m 0 min 0 min 0,0 UV-I 31 W/m 14,2 km/h (3 Bft)
13.08.2014 20:12 18,8 C 16,7 C 70 % 1004,9 hPa 0,0 l/m 0 min 0 min 0,0 UV-I 30 W/m 21,3 km/h (4 Bft)
13.08.2014 20:14 18,7 C 16,7 C 70 % 1005,0 hPa 0,0 l/m 0 min 0 min 0,0 UV-I 30 W/m 17,7 km/h (3 Bft)
13.08.2014 20:16 18,6 C 16,1 C 71 % 1005,0 hPa 0,0 l/m 0 min 0 min 0,0 UV-I 29 W/m 21,3 km/h (4 Bft)
13.08.2014 20:18 18,5 C 16,1 C 71 % 1005,0 hPa 0,0 l/m 0 min 0 min 0,0 UV-I 26 W/m 10,7 km/h (2 Bft)
13.08.2014 20:20 18,4 C 16,1 C 70 % 1005,0 hPa 0,0 l/m 0 min 0 min 0,0 UV-I 26 W/m 14,2 km/h (3 Bft)
13.08.2014 20:22 18,4 C 16,1 C 71 % 1005,1 hPa 0,0 l/m 0 min 0 min 0,0 UV-I 25 W/m 10,7 km/h (2 Bft)
13.08.2014 20:24 18,4 C 16,1 C 72 % 1005,1 hPa 0,0 l/m 0 min 0 min 0,0 UV-I 23 W/m 10,7 km/h (2 Bft)
13.08.2014 20:26 18,3 C 16,1 C 72 % 1005,1 hPa 0,0 l/m 0 min 0 min 0,0 UV-I 23 W/m 14,2 km/h (3 Bft)
13.08.2014 20:28 18,2 C 15,6 C 72 % 1005,1 hPa 0,0 l/m 0 min 0 min 0,0 UV-I 21 W/m 24,7 km/h (4 Bft)
13.08.2014 20:30 18,1 C 15,6 C 72 % 1005,2 hPa 0,0 l/m 0 min 0 min 0,0 UV-I 20 W/m 21,3 km/h (4 Bft)
13.08.2014 20:32 18,1 C 16,1 C 72 % 1005,2 hPa 0,0 l/m 0 min 0 min 0,0 UV-I 18 W/m 14,2 km/h (3 Bft)
13.08.2014 20:34 18,1 C 15,6 C 73 % 1005,2 hPa 0,0 l/m 0 min 0 min 0,0 UV-I 17 W/m 21,3 km/h (4 Bft)
13.08.2014 20:36 18,1 C 16,1 C 72 % 1005,2 hPa 0,0 l/m 0 min 0 min 0,0 UV-I 14 W/m 21,3 km/h (4 Bft)
13.08.2014 20:38 18,1 C 15,6 C 72 % 1005,2 hPa 0,0 l/m 0 min 0 min 0,0 UV-I 14 W/m 21,3 km/h (4 Bft)
13.08.2014 20:40 18,0 C 15,6 C 72 % 1005,2 hPa 0,0 l/m 0 min 0 min 0,0 UV-I 13 W/m 17,7 km/h (3 Bft)
13.08.2014 20:42 18,0 C 15,6 C 72 % 1005,2 hPa 0,0 l/m 0 min 0 min 0,0 UV-I 12 W/m 21,3 km/h (4 Bft)
13.08.2014 20:44 17,9 C 15,6 C 72 % 1005,3 hPa 0,0 l/m 0 min 0 min 0,0 UV-I 12 W/m 14,2 km/h (3 Bft)
13.08.2014 20:46 17,9 C 15,6 C 73 % 1005,3 hPa 0,0 l/m 0 min 0 min 0,0 UV-I 11 W/m 10,7 km/h (2 Bft)
13.08.2014 20:48 17,9 C 16,1 C 73 % 1005,4 hPa 0,0 l/m 0 min 0 min 0,0 UV-I 11 W/m 17,7 km/h (3 Bft)
13.08.2014 20:50 17,9 C 16,1 C 73 % 1005,4 hPa 0,0 l/m 0 min 0 min 0,0 UV-I 11 W/m 14,2 km/h (3 Bft)
13.08.2014 20:52 17,9 C 16,1 C 74 % 1005,6 hPa 0,0 l/m 0 min 0 min 0,0 UV-I 10 W/m 17,7 km/h (3 Bft)
13.08.2014 20:54 17,8 C 15,6 C 74 % 1005,5 hPa 0,0 l/m 0 min 0 min 0,0 UV-I 9 W/m 17,7 km/h (3 Bft)
13.08.2014 20:56 17,8 C 15,6 C 74 % 1005,5 hPa 0,0 l/m 0 min 0 min 0,0 UV-I 0 W/m 21,3 km/h (4 Bft)
13.08.2014 20:58 17,8 C 15,6 C 74 % 1005,6 hPa 0,0 l/m 0 min 0 min 0,0 UV-I 0 W/m 21,3 km/h (4 Bft)
13.08.2014 21:00 17,7 C 15,6 C 74 % 1005,6 hPa 0,0 l/m 0 min 0 min 0,0 UV-I 0 W/m 7,1 km/h (2 Bft)
13.08.2014 21:02 17,7 C 15,6 C 74 % 1005,7 hPa 0,0 l/m 0 min 0 min 0,0 UV-I 0 W/m 10,7 km/h (2 Bft)
13.08.2014 21:04 17,6 C 15,6 C 75 % 1005,7 hPa 0,0 l/m 0 min 0 min 0,0 UV-I 0 W/m 14,2 km/h (3 Bft)
13.08.2014 21:06 17,5 C 15,0 C 75 % 1005,7 hPa 0,0 l/m 0 min 0 min 0,0 UV-I 0 W/m 10,7 km/h (2 Bft)
13.08.2014 21:08 17,4 C 15,0 C 75 % 1005,8 hPa 0,0 l/m 0 min 0 min 0,0 UV-I 0 W/m 10,7 km/h (2 Bft)
13.08.2014 21:10 17,3 C 15,0 C 76 % 1005,8 hPa 0,0 l/m 0 min 0 min 0,0 UV-I 0 W/m 3,5 km/h (1 Bft)
13.08.2014 21:12 17,3 C 15,0 C 76 % 1005,9 hPa 0,0 l/m 0 min 0 min 0,0 UV-I 0 W/m 3,5 km/h (1 Bft)
13.08.2014 21:14 17,2 C 15,0 C 76 % 1005,9 hPa 0,0 l/m 0 min 0 min 0,0 UV-I 0 W/m 14,2 km/h (3 Bft)
13.08.2014 21:16 17,2 C 15,0 C 76 % 1006,0 hPa 0,0 l/m 0 min 0 min 0,0 UV-I 0 W/m 10,7 km/h (2 Bft)
13.08.2014 21:18 17,1 C 15,0 C 76 % 1006,1 hPa 0,0 l/m 0 min 0 min 0,0 UV-I 0 W/m 10,7 km/h (2 Bft)
13.08.2014 21:20 17,1 C 15,0 C 76 % 1006,1 hPa 0,0 l/m 0 min 0 min 0,0 UV-I 0 W/m 10,7 km/h (2 Bft)
13.08.2014 21:22 17,0 C 15,0 C 76 % 1006,1 hPa 0,0 l/m 0 min 0 min 0,0 UV-I 0 W/m 0,0 km/h (0 Bft)
13.08.2014 21:24 16,9 C 14,4 C 76 % 1006,1 hPa 0,0 l/m 0 min 0 min 0,0 UV-I 0 W/m 3,5 km/h (1 Bft)
13.08.2014 21:26 16,9 C 14,4 C 77 % 1006,1 hPa 0,0 l/m 0 min 0 min 0,0 UV-I 0 W/m 0,0 km/h (0 Bft)
13.08.2014 21:28 16,8 C 14,4 C 77 % 1006,1 hPa 0,0 l/m 0 min 0 min 0,0 UV-I 0 W/m 0,0 km/h (0 Bft)
13.08.2014 21:30 16,7 C 14,4 C 77 % 1006,2 hPa 0,0 l/m 0 min 0 min 0,0 UV-I 0 W/m 0,0 km/h (0 Bft)
13.08.2014 21:32 16,7 C 14,4 C 77 % 1006,2 hPa 0,0 l/m 0 min 0 min 0,0 UV-I 0 W/m 0,0 km/h (0 Bft)
13.08.2014 21:34 16,6 C 13,9 C 78 % 1006,2 hPa 0,0 l/m 0 min 0 min 0,0 UV-I 0 W/m 3,5 km/h (1 Bft)
13.08.2014 21:36 16,5 C 13,9 C 78 % 1006,4 hPa 0,0 l/m 0 min 0 min 0,0 UV-I 0 W/m 0,0 km/h (0 Bft)
13.08.2014 21:38 16,4 C 13,9 C 79 % 1006,3 hPa 0,0 l/m 0 min 0 min 0,0 UV-I 0 W/m 0,0 km/h (0 Bft)
13.08.2014 21:40 16,3 C 13,9 C 79 % 1006,5 hPa 0,0 l/m 0 min 0 min 0,0 UV-I 0 W/m 10,7 km/h (2 Bft)
13.08.2014 21:42 16,3 C 13,9 C 79 % 1006,5 hPa 0,0 l/m 0 min 0 min 0,0 UV-I 0 W/m 3,5 km/h (1 Bft)
13.08.2014 21:44 16,2 C 13,9 C 80 % 1006,5 hPa 0,0 l/m 0 min 0 min 0,0 UV-I 0 W/m 0,0 km/h (0 Bft)
13.08.2014 21:46 16,1 C 13,9 C 80 % 1006,5 hPa 0,0 l/m 0 min 0 min 0,0 UV-I 0 W/m 0,0 km/h (0 Bft)
13.08.2014 21:48 16,1 C 13,9 C 80 % 1006,5 hPa 0,0 l/m 0 min 0 min 0,0 UV-I 0 W/m 0,0 km/h (0 Bft)
13.08.2014 21:50 16,1 C 13,9 C 80 % 1006,6 hPa 0,0 l/m 0 min 0 min 0,0 UV-I 0 W/m 10,7 km/h (2 Bft)
13.08.2014 21:52 16,0 C 13,9 C 80 % 1006,6 hPa 0,0 l/m 0 min 0 min 0,0 UV-I 0 W/m 10,7 km/h (2 Bft)
13.08.2014 21:54 16,0 C 13,9 C 80 % 1006,6 hPa 0,0 l/m 0 min 0 min 0,0 UV-I 0 W/m 17,7 km/h (3 Bft)
13.08.2014 21:56 16,0 C 13,9 C 80 % 1006,6 hPa 0,0 l/m 0 min 0 min 0,0 UV-I 0 W/m 17,7 km/h (3 Bft)
13.08.2014 21:58 16,1 C 13,9 C 80 % 1006,6 hPa 0,0 l/m 0 min 0 min 0,0 UV-I 0 W/m 14,2 km/h (3 Bft)
13.08.2014 22:00 16,0 C 13,9 C 80 % 1006,6 hPa 0,0 l/m 0 min 0 min 0,0 UV-I 0 W/m 14,2 km/h (3 Bft)
13.08.2014 22:02 16,0 C 13,9 C 80 % 1006,6 hPa 0,0 l/m 0 min 0 min 0,0 UV-I 0 W/m 10,7 km/h (2 Bft)
13.08.2014 22:04 15,9 C 13,9 C 80 % 1006,6 hPa 0,0 l/m 0 min 0 min 0,0 UV-I 0 W/m 0,0 km/h (0 Bft)
13.08.2014 22:06 15,9 C 13,9 C 81 % 1006,6 hPa 0,0 l/m 0 min 0 min 0,0 UV-I 0 W/m 0,0 km/h (0 Bft)
13.08.2014 22:08 15,8 C 13,9 C 81 % 1006,7 hPa 0,0 l/m 0 min 0 min 0,0 UV-I 0 W/m 3,5 km/h (1 Bft)
13.08.2014 22:10 15,7 C 13,9 C 82 % 1006,8 hPa 0,0 l/m 0 min 0 min 0,0 UV-I 0 W/m 10,7 km/h (2 Bft)
13.08.2014 22:12 15,7 C 13,9 C 82 % 1006,8 hPa 0,0 l/m 0 min 0 min 0,0 UV-I 0 W/m 7,1 km/h (2 Bft)
13.08.2014 22:14 15,6 C 13,3 C 82 % 1006,7 hPa 0,0 l/m 0 min 0 min 0,0 UV-I 0 W/m 3,5 km/h (1 Bft)
13.08.2014 22:16 15,6 C 13,3 C 82 % 1006,8 hPa 0,0 l/m 0 min 0 min 0,0 UV-I 0 W/m 7,1 km/h (2 Bft)
13.08.2014 22:18 15,5 C 13,3 C 82 % 1006,8 hPa 0,0 l/m 0 min 0 min 0,0 UV-I 0 W/m 10,7 km/h (2 Bft)
13.08.2014 22:20 15,4 C 13,3 C 83 % 1006,8 hPa 0,0 l/m 0 min 0 min 0,0 UV-I 0 W/m 0,0 km/h (0 Bft)
13.08.2014 22:22 15,4 C 13,3 C 83 % 1006,8 hPa 0,0 l/m 0 min 0 min 0,0 UV-I 0 W/m 7,1 km/h (2 Bft)
13.08.2014 22:24 15,4 C 13,3 C 83 % 1006,8 hPa 0,0 l/m 0 min 0 min 0,0 UV-I 0 W/m 10,7 km/h (2 Bft)
13.08.2014 22:26 15,3 C 13,3 C 83 % 1006,9 hPa 0,0 l/m 0 min 0 min 0,0 UV-I 0 W/m 3,5 km/h (1 Bft)
13.08.2014 22:28 15,3 C 13,3 C 83 % 1006,9 hPa 0,0 l/m 0 min 0 min 0,0 UV-I 0 W/m 0,0 km/h (0 Bft)
13.08.2014 22:30 15,3 C 13,3 C 83 % 1006,9 hPa 0,0 l/m 0 min 0 min 0,0 UV-I 0 W/m 0,0 km/h (0 Bft)
13.08.2014 22:32 15,2 C 13,3 C 83 % 1006,9 hPa 0,0 l/m 0 min 0 min 0,0 UV-I 0 W/m 0,0 km/h (0 Bft)
13.08.2014 22:34 15,2 C 12,8 C 83 % 1006,9 hPa 0,0 l/m 0 min 0 min 0,0 UV-I 0 W/m 0,0 km/h (0 Bft)
13.08.2014 22:36 15,1 C 12,8 C 84 % 1006,9 hPa 0,0 l/m 0 min 0 min 0,0 UV-I 0 W/m 0,0 km/h (0 Bft)
13.08.2014 22:38 15,0 C 12,8 C 84 % 1007,1 hPa 0,0 l/m 0 min 0 min 0,0 UV-I 0 W/m 0,0 km/h (0 Bft)
13.08.2014 22:40 15,0 C 12,8 C 84 % 1007,1 hPa 0,0 l/m 0 min 0 min 0,0 UV-I 0 W/m 10,7 km/h (2 Bft)
13.08.2014 22:42 15,0 C 12,8 C 84 % 1007,1 hPa 0,0 l/m 0 min 0 min 0,0 UV-I 0 W/m 7,1 km/h (2 Bft)
13.08.2014 22:44 15,0 C 12,8 C 84 % 1007,1 hPa 0,0 l/m 0 min 0 min 0,0 UV-I 0 W/m 14,2 km/h (3 Bft)
13.08.2014 22:46 15,0 C 13,3 C 84 % 1007,1 hPa 0,0 l/m 0 min 0 min 0,0 UV-I 0 W/m 7,1 km/h (2 Bft)
13.08.2014 22:48 15,0 C 13,3 C 84 % 1007,1 hPa 0,0 l/m 0 min 0 min 0,0 UV-I 0 W/m 14,2 km/h (3 Bft)
13.08.2014 22:50 15,0 C 13,3 C 84 % 1007,1 hPa 0,0 l/m 0 min 0 min 0,0 UV-I 0 W/m 17,7 km/h (3 Bft)
13.08.2014 22:52 14,9 C 13,3 C 84 % 1007,1 hPa 0,0 l/m 0 min 0 min 0,0 UV-I 0 W/m 14,2 km/h (3 Bft)
13.08.2014 22:54 14,9 C 13,3 C 84 % 1007,1 hPa 0,0 l/m 0 min 0 min 0,0 UV-I 0 W/m 14,2 km/h (3 Bft)
13.08.2014 22:56 14,9 C 13,3 C 84 % 1007,2 hPa 0,0 l/m 0 min 0 min 0,0 UV-I 0 W/m 14,2 km/h (3 Bft)
13.08.2014 22:58 14,9 C 13,3 C 84 % 1007,2 hPa 0,0 l/m 0 min 0 min 0,0 UV-I 0 W/m 14,2 km/h (3 Bft)
13.08.2014 23:00 14,9 C 13,3 C 84 % 1007,2 hPa 0,0 l/m 0 min 0 min 0,0 UV-I 0 W/m 14,2 km/h (3 Bft)
13.08.2014 23:02 14,9 C 13,3 C 84 % 1007,2 hPa 0,0 l/m 0 min 0 min 0,0 UV-I 0 W/m 14,2 km/h (3 Bft)
13.08.2014 23:04 15,0 C 13,3 C 84 % 1007,2 hPa 0,0 l/m 0 min 0 min 0,0 UV-I 0 W/m 10,7 km/h (2 Bft)
13.08.2014 23:06 15,0 C 13,3 C 84 % 1007,2 hPa 0,0 l/m 0 min 0 min 0,0 UV-I 0 W/m 10,7 km/h (2 Bft)
13.08.2014 23:08 15,0 C 13,3 C 84 % 1007,2 hPa 0,0 l/m 0 min 0 min 0,0 UV-I 0 W/m 10,7 km/h (2 Bft)
13.08.2014 23:10 15,0 C 13,3 C 84 % 1007,3 hPa 0,0 l/m 0 min 0 min 0,0 UV-I 0 W/m 10,7 km/h (2 Bft)
13.08.2014 23:12 14,9 C 13,3 C 84 % 1007,3 hPa 0,0 l/m 0 min 0 min 0,0 UV-I 0 W/m 7,1 km/h (2 Bft)
13.08.2014 23:14 14,9 C 13,3 C 84 % 1007,3 hPa 0,0 l/m 0 min 0 min 0,0 UV-I 0 W/m 10,7 km/h (2 Bft)
13.08.2014 23:16 14,9 C 13,3 C 84 % 1007,3 hPa 0,0 l/m 0 min 0 min 0,0 UV-I 0 W/m 14,2 km/h (3 Bft)
13.08.2014 23:18 14,9 C 13,3 C 84 % 1007,3 hPa 0,0 l/m 0 min 0 min 0,0 UV-I 0 W/m 3,5 km/h (1 Bft)
13.08.2014 23:20 14,9 C 13,3 C 84 % 1007,3 hPa 0,0 l/m 0 min 0 min 0,0 UV-I 0 W/m 0,0 km/h (0 Bft)
13.08.2014 23:22 14,9 C 13,3 C 84 % 1007,3 hPa 0,0 l/m 0 min 0 min 0,0 UV-I 0 W/m 0,0 km/h (0 Bft)
13.08.2014 23:24 14,9 C 13,3 C 84 % 1007,3 hPa 0,0 l/m 0 min 0 min 0,0 UV-I 0 W/m 7,1 km/h (2 Bft)
13.08.2014 23:26 14,9 C 13,3 C 85 % 1007,4 hPa 0,0 l/m 0 min 0 min 0,0 UV-I 0 W/m 10,7 km/h (2 Bft)
13.08.2014 23:28 14,9 C 13,3 C 85 % 1007,3 hPa 0,0 l/m 0 min 0 min 0,0 UV-I 0 W/m 3,5 km/h (1 Bft)
13.08.2014 23:30 14,9 C 13,3 C 85 % 1007,4 hPa 0,0 l/m 0 min 0 min 0,0 UV-I 0 W/m 0,0 km/h (0 Bft)
13.08.2014 23:32 14,9 C 13,3 C 85 % 1007,4 hPa 0,0 l/m 0 min 0 min 0,0 UV-I 0 W/m 3,5 km/h (1 Bft)
13.08.2014 23:34 14,9 C 13,3 C 85 % 1007,4 hPa 0,0 l/m 0 min 0 min 0,0 UV-I 0 W/m 0,0 km/h (0 Bft)
13.08.2014 23:36 14,9 C 12,8 C 85 % 1007,3 hPa 0,0 l/m 0 min 0 min 0,0 UV-I 0 W/m 0,0 km/h (0 Bft)
13.08.2014 23:38 14,9 C 12,8 C 85 % 1007,4 hPa 0,0 l/m 0 min 0 min 0,0 UV-I 0 W/m 14,2 km/h (3 Bft)
13.08.2014 23:40 14,9 C 13,3 C 85 % 1007,4 hPa 0,0 l/m 0 min 0 min 0,0 UV-I 0 W/m 10,7 km/h (2 Bft)
13.08.2014 23:42 14,9 C 13,3 C 85 % 1007,4 hPa 0,0 l/m 0 min 0 min 0,0 UV-I 0 W/m 3,5 km/h (1 Bft)
13.08.2014 23:44 14,9 C 13,3 C 85 % 1007,5 hPa 0,0 l/m 0 min 0 min 0,0 UV-I 0 W/m 10,7 km/h (2 Bft)
13.08.2014 23:46 14,9 C 13,3 C 85 % 1007,5 hPa 0,0 l/m 0 min 0 min 0,0 UV-I 0 W/m 0,0 km/h (0 Bft)
13.08.2014 23:48 14,9 C 12,8 C 85 % 1007,5 hPa 0,0 l/m 0 min 0 min 0,0 UV-I 0 W/m 0,0 km/h (0 Bft)
13.08.2014 23:50 14,9 C 12,8 C 86 % 1007,5 hPa 0,0 l/m 0 min 0 min 0,0 UV-I 0 W/m 7,1 km/h (2 Bft)
13.08.2014 23:52 14,9 C 12,8 C 86 % 1007,5 hPa 0,0 l/m 0 min 0 min 0,0 UV-I 0 W/m 14,2 km/h (3 Bft)
13.08.2014 23:54 14,9 C 12,8 C 86 % 1007,5 hPa 0,0 l/m 0 min 0 min 0,0 UV-I 0 W/m 14,2 km/h (3 Bft)
13.08.2014 23:56 14,9 C 13,3 C 86 % 1007,5 hPa 0,0 l/m 0 min 0 min 0,0 UV-I 0 W/m 7,1 km/h (2 Bft)
13.08.2014 23:58 14,9 C 12,8 C 86 % 1007,5 hPa 0,0 l/m 0 min 0 min 0,0 UV-I 0 W/m 3,5 km/h (1 Bft)
_ Min-Zeit 05:48 05:20 19:02 12:54 - - - - - 01:12
Minimum _ 11,8 C 10,6 C 62 % 1004,1 hPa - - - - - 0,0 km/h (0 Bft)
_ Max-Zeit 17:38 12:26 07:48 00:00 00:00 06:32 00:00 11:40 11:48 08:48
Maximum _ 21,4 C 20,6 C 99 % 1008,7 hPa 0,0 l/m 2 min 0 min 3,5 UV-I 846 W/m 31,7 km/h
S-SW (5 Bft)
Durchschnitt _ 16,5 C 15,4 C 84 % 1005,6 hPa #0,0 l/m #4:46 h #0 min. 1,3 UV-I 230 W/m 11,4 km/h (2 Bft)
© 2014 W. Hausmann